M I D A S
Marine Information and Data Acquisition System
Tripno 2026 of the Zeeleeuw from 2010-11-25 07:16:49 to 2010-11-25 15:35:39
Back to CruiseResearch ActivitiesStationsMapUnderway DataData graphs

EquipmentUnitsComment
TimeDGPSUTC
LatitudeDGPSDM.mWGS84
LongitudeDGPSDM.mWGS84
TemperatureSBE03/SBE38deg celciusITS90
ConductivitySBE21S/mITS90
SalinitySBE21 Practical Salinity Units
ChlorophylAChelsea fluorimeterg/lCalibrated in Aceton
Missing or incorrect values are displayed as -999
Sea surface data collected by the RV Zeeleeuw from 2010-11-25 07:11:19 to 2010-11-25 15:47:48
                                                                                    Next 1000 lines
Time Latitude Longitude Temperature Conductivity Salinity ChlorophylA
2010-11-25 07:11:29 51°13.663 2°55.959 14.0728 0.634008 4.133692 -0.547855
2010-11-25 07:11:35 51°13.663 2°55.959 14.0614 0.634008 4.133692 -0.513031
2010-11-25 07:11:39 51°13.662 2°55.959 14.0435 0.634008 4.133618 -0.547855
2010-11-25 07:11:44 51°13.662 2°55.959 14.0532 0.634008 4.133618 -0.58268
2010-11-25 07:11:50 51°13.662 2°55.959 14.066 0.634008 4.133618 -0.58268
2010-11-25 07:11:55 51°13.662 2°55.959 14.0615 0.634008 4.133692 -0.513031
2010-11-25 07:11:59 51°13.662 2°55.959 14.0658 0.633903 4.132964 -0.513031
2010-11-25 07:12:04 51°13.662 2°55.959 14.0711 0.634008 4.133692 -0.58268
2010-11-25 07:12:10 51°13.662 2°55.959 14.0556 0.634008 4.133618 -0.547855
2010-11-25 07:12:15 51°13.662 2°55.959 14.0562 0.634008 4.133692 -0.547855
2010-11-25 07:12:19 51°13.662 2°55.959 14.0583 0.634008 4.133692 -0.547855
2010-11-25 07:12:24 51°13.662 2°55.959 14.0597 0.634008 4.133767 -0.58268
2010-11-25 07:12:29 51°13.662 2°55.959 14.0596 0.634008 4.133767 -0.58268
2010-11-25 07:12:35 51°13.662 2°55.959 14.0579 0.633903 4.133038 -0.547855
2010-11-25 07:12:39 51°13.662 2°55.959 14.0587 0.634008 4.133767 -0.547855
2010-11-25 07:12:44 51°13.662 2°55.959 14.0589 0.633903 4.132964 -0.513031
2010-11-25 07:12:50 51°13.662 2°55.959 14.0624 0.633903 4.132964 -0.513031
2010-11-25 07:12:55 51°13.662 2°55.959 14.0651 0.633903 4.132889 -0.58268
2010-11-25 07:12:59 51°13.662 2°55.959 14.0693 0.634008 4.133692 -0.547855
2010-11-25 07:13:04 51°13.662 2°55.959 14.0635 0.633903 4.133112 -0.547855
2010-11-25 07:13:09 51°13.662 2°55.959 14.0645 0.633903 4.133112 -0.58268
2010-11-25 07:13:14 51°13.663 2°55.959 14.0645 0.634008 4.133767 -0.513031
2010-11-25 07:13:19 51°13.663 2°55.959 14.0638 0.634008 4.133767 -0.513031
2010-11-25 07:13:24 51°13.662 2°55.959 14.071 0.634008 4.133767 -0.547855
2010-11-25 07:13:29 51°13.662 2°55.959 14.0708 0.634008 4.133841 -0.547855
2010-11-25 07:13:34 51°13.662 2°55.959 14.065 0.634008 4.133915 -0.547855
2010-11-25 07:13:39 51°13.662 2°55.958 14.0617 0.634008 4.133841 -0.513031
2010-11-25 07:13:44 51°13.662 2°55.958 14.0718 0.634008 4.133841 -0.547855
2010-11-25 07:13:49 51°13.662 2°55.958 14.0686 0.634008 4.133841 -0.547855
2010-11-25 07:13:54 51°13.662 2°55.958 14.0683 0.634008 4.133989 -0.547855
2010-11-25 07:13:59 51°13.662 2°55.958 14.0708 0.634008 4.133989 -0.547855
2010-11-25 07:14:04 51°13.662 2°55.958 14.076 0.633903 4.13326 -0.547855
2010-11-25 07:14:10 51°13.662 2°55.958 14.0723 0.634008 4.134064 -0.547855
2010-11-25 07:14:14 51°13.662 2°55.958 14.0701 0.633903 4.133409 -0.547855
2010-11-25 07:14:19 51°13.662 2°55.958 14.0778 0.633903 4.133409 -0.547855
2010-11-25 07:14:24 51°13.662 2°55.958 14.0764 0.634008 4.134138 -0.513031
2010-11-25 07:14:29 51°13.662 2°55.958 14.0737 0.634008 4.134138 -0.547855
2010-11-25 07:14:35 51°13.662 2°55.958 14.0729 0.634008 4.134212 -0.58268
2010-11-25 07:14:39 51°13.662 2°55.958 14.0737 0.634008 4.134212 -0.513031
2010-11-25 07:14:44 51°13.662 2°55.958 14.0822 0.633903 4.133557 -0.547855
2010-11-25 07:14:50 51°13.662 2°55.958 14.0634 0.633903 4.133557 -0.547855
2010-11-25 07:14:55 51°13.662 2°55.958 14.0668 0.634008 4.134286 -0.58268
2010-11-25 07:14:59 51°13.662 2°55.958 14.0775 0.634008 4.13436 -0.58268
2010-11-25 07:15:04 51°13.662 2°55.958 14.0724 0.633903 4.13378 -0.547855
2010-11-25 07:15:09 51°13.662 2°55.958 14.0751 0.634008 4.134509 -0.547855
2010-11-25 07:15:14 51°13.662 2°55.959 14.076 0.633903 4.133854 -0.58268
2010-11-25 07:15:19 51°13.662 2°55.959 14.077 0.633903 4.133854 -0.58268
2010-11-25 07:15:24 51°13.662 2°55.959 14.0742 0.633903 4.133854 -0.547855
2010-11-25 07:15:29 51°13.662 2°55.959 14.0735 0.633903 4.133928 -0.547855
2010-11-25 07:15:35 51°13.662 2°55.959 14.0763 0.633903 4.134003 -0.547855
2010-11-25 07:15:39 51°13.662 2°55.959 14.0775 0.634008 4.134732 -0.547855
2010-11-25 07:15:44 51°13.663 2°55.959 14.0814 0.633903 4.134077 -0.547855
2010-11-25 07:15:49 51°13.663 2°55.959 14.0796 0.633903 4.134077 -0.547855
2010-11-25 07:15:55 51°13.663 2°55.959 14.0708 0.633903 4.134151 -0.547855
2010-11-25 07:15:59 51°13.663 2°55.959 14.0694 0.634008 4.13488 -0.547855
2010-11-25 07:16:03 51°13.663 2°55.959 14.0797 0.633903 4.134225 -0.58268
2010-11-25 07:16:09 51°13.663 2°55.959 14.0856 0.633903 4.1343 -0.547855
2010-11-25 07:16:15 51°13.662 2°55.959 14.0789 0.634008 4.135029 -0.547855
2010-11-25 07:16:19 51°13.663 2°55.959 14.0847 0.634008 4.135029 -0.547855
2010-11-25 07:16:24 51°13.663 2°55.959 14.0871 0.633903 4.134374 -0.547855
2010-11-25 07:16:29 51°13.663 2°55.958 14.0847 0.633903 4.134448 -0.547855
2010-11-25 07:16:35 51°13.663 2°55.959 14.0812 0.634008 4.135252 -0.547855
2010-11-25 07:16:39 51°13.662 2°55.959 14.0816 0.633903 4.134522 -0.547855
2010-11-25 07:16:44 51°13.662 2°55.959 14.0847 0.633903 4.134597 -0.547855
2010-11-25 07:16:50 51°13.662 2°55.959 14.0839 0.633903 4.134597 -0.547855
2010-11-25 07:16:54 51°13.662 2°55.959 14.0876 0.633903 4.134522 -0.547855
2010-11-25 07:16:59 51°13.662 2°55.959 14.082 0.633903 4.134671 -0.547855
2010-11-25 07:17:04 51°13.662 2°55.959 14.0758 0.633903 4.134597 -0.547855
2010-11-25 07:17:09 51°13.663 2°55.96 14.0753 0.633903 4.134671 -0.58268
2010-11-25 07:17:15 51°13.664 2°55.96 14.0786 0.633903 4.134671 -0.58268
2010-11-25 07:17:19 51°13.664 2°55.96 14.0727 0.633903 4.134671 -0.58268
2010-11-25 07:17:24 51°13.663 2°55.96 14.0766 0.633903 4.134745 -0.547855
2010-11-25 07:17:29 51°13.663 2°55.96 14.0746 0.633903 4.134819 -0.547855
2010-11-25 07:17:35 51°13.662 2°55.959 14.0825 0.633903 4.134745 -0.547855
2010-11-25 07:17:39 51°13.662 2°55.959 14.0776 0.633903 4.134819 -0.547855
2010-11-25 07:17:44 51°13.662 2°55.959 14.0604 0.633903 4.134745 -0.547855
2010-11-25 07:17:49 51°13.662 2°55.96 14.0819 0.633903 4.134745 -0.547855
2010-11-25 07:17:55 51°13.663 2°55.96 14.0838 0.633903 4.134894 -0.547855
2010-11-25 07:17:59 51°13.663 2°55.96 14.0759 0.634008 4.135623 -0.547855
2010-11-25 07:18:04 51°13.663 2°55.96 14.0877 0.633903 4.134894 -0.547855
2010-11-25 07:18:10 51°13.663 2°55.96 14.0825 0.633903 4.134968 -0.547855
2010-11-25 07:18:14 51°13.663 2°55.96 14.0826 0.634008 4.135697 -0.547855
2010-11-25 07:18:19 51°13.663 2°55.96 14.0858 0.634008 4.135697 -0.547855
2010-11-25 07:18:24 51°13.663 2°55.96 14.0864 0.633903 4.134968 -0.547855
2010-11-25 07:18:30 51°13.663 2°55.959 14.0924 0.634008 4.135772 -0.547855
2010-11-25 07:18:34 51°13.663 2°55.96 14.0877 0.633903 4.135042 -0.547855
2010-11-25 07:18:39 51°13.663 2°55.96 14.089 0.633903 4.135042 -0.547855
2010-11-25 07:18:44 51°13.664 2°55.96 14.0937 0.633903 4.135042 -0.547855
2010-11-25 07:18:50 51°13.663 2°55.96 14.089 0.633903 4.135042 -0.547855
2010-11-25 07:18:55 51°13.663 2°55.96 14.095 0.633903 4.135042 -0.547855
2010-11-25 07:18:59 51°13.663 2°55.96 14.0953 0.633903 4.135117 -0.547855
2010-11-25 07:19:03 51°13.663 2°55.96 14.0974 0.633903 4.135042 -0.58268
2010-11-25 07:19:09 51°13.663 2°55.96 14.1001 0.633903 4.135117 -0.547855
2010-11-25 07:19:14 51°13.663 2°55.96 14.1018 0.633903 4.135191 -0.547855
2010-11-25 07:19:19 51°13.663 2°55.96 14.1071 0.633903 4.135191 -0.547855
2010-11-25 07:19:24 51°13.663 2°55.96 14.1202 0.633903 4.135117 -0.547855
2010-11-25 07:19:29 51°13.663 2°55.96 14.1197 0.633903 4.135117 -0.58268
2010-11-25 07:19:35 51°13.663 2°55.96 14.1042 0.633903 4.135117 -0.547855
2010-11-25 07:19:39 51°13.663 2°55.96 14.1053 0.633903 4.135191 -0.547855
2010-11-25 07:19:44 51°13.663 2°55.96 14.1068 0.633903 4.135117 -0.547855
2010-11-25 07:19:50 51°13.663 2°55.96 14.1097 0.633903 4.135117 -0.547855
2010-11-25 07:19:54 51°13.663 2°55.96 14.1106 0.633903 4.135191 -0.58268
2010-11-25 07:19:59 51°13.663 2°55.96 14.1122 0.633903 4.135191 -0.58268
2010-11-25 07:20:04 51°13.663 2°55.96 14.1079 0.633903 4.135265 -0.547855
2010-11-25 07:20:09 51°13.663 2°55.96 14.1177 0.633903 4.135265 -0.547855
2010-11-25 07:20:14 51°13.663 2°55.961 14.1132 0.633903 4.135265 -0.547855
2010-11-25 07:20:19 51°13.664 2°55.961 14.1165 0.633903 4.135265 -0.547855
2010-11-25 07:20:24 51°13.664 2°55.961 14.1132 0.633903 4.135265 -0.547855
2010-11-25 07:20:29 51°13.665 2°55.961 14.1145 0.633903 4.135339 -0.547855
2010-11-25 07:20:35 51°13.664 2°55.961 14.1148 0.633903 4.135265 -0.547855
2010-11-25 07:20:39 51°13.664 2°55.961 14.1203 0.633903 4.135339 -0.58268
2010-11-25 07:20:43 51°13.663 2°55.961 14.1185 0.633903 4.135414 -0.547855
2010-11-25 07:20:49 51°13.661 2°55.962 14.1154 0.633903 4.135414 -0.547855
2010-11-25 07:20:54 51°13.66 2°55.961 14.1139 0.633903 4.135414 -0.547855
2010-11-25 07:20:59 51°13.66 2°55.961 14.1014 0.633903 4.135488 -0.547855
2010-11-25 07:21:04 51°13.66 2°55.961 14.1013 0.633903 4.135488 -0.547855
2010-11-25 07:21:09 51°13.66 2°55.961 14.1045 0.633903 4.135562 -0.513031
2010-11-25 07:21:15 51°13.66 2°55.961 14.1118 0.633903 4.135562 -0.547855
2010-11-25 07:21:19 51°13.66 2°55.961 14.1048 0.633903 4.135562 -0.547855
2010-11-25 07:21:24 51°13.66 2°55.962 14.1074 0.633903 4.135637 -0.58268
2010-11-25 07:21:30 51°13.661 2°55.962 14.1205 0.633903 4.135711 -0.58268
2010-11-25 07:21:34 51°13.662 2°55.962 14.1041 0.633903 4.135785 -0.547855
2010-11-25 07:21:39 51°13.662 2°55.962 14.1075 0.633903 4.135785 -0.547855
2010-11-25 07:21:44 51°13.662 2°55.962 14.1218 0.633903 4.13586 -0.58268
2010-11-25 07:21:49 51°13.662 2°55.961 14.1187 0.633903 4.13586 -0.58268
2010-11-25 07:21:54 51°13.661 2°55.961 14.1175 0.633903 4.136008 -0.58268
2010-11-25 07:21:59 51°13.661 2°55.961 14.1156 0.633903 4.136082 -0.547855
2010-11-25 07:22:04 51°13.661 2°55.961 14.1196 0.633903 4.136082 -0.547855
2010-11-25 07:22:09 51°13.661 2°55.961 14.1172 0.633903 4.136231 -0.58268
2010-11-25 07:22:15 51°13.66 2°55.961 14.12 0.633903 4.136231 -0.547855
2010-11-25 07:22:19 51°13.66 2°55.96 14.1208 0.633903 4.136231 -0.547855
2010-11-25 07:22:24 51°13.66 2°55.96 14.1204 0.633903 4.13638 -0.513031
2010-11-25 07:22:30 51°13.66 2°55.96 14.125 0.633903 4.136528 -0.547855
2010-11-25 07:22:34 51°13.659 2°55.96 14.1117 0.633903 4.136677 -0.547855
2010-11-25 07:22:39 51°13.659 2°55.96 14.1089 0.633903 4.136677 -0.58268
2010-11-25 07:22:44 51°13.659 2°55.96 14.092 0.633903 4.136826 -0.547855
2010-11-25 07:22:50 51°13.66 2°55.96 14.0252 0.633903 4.136826 -0.547855
2010-11-25 07:22:54 51°13.661 2°55.96 14.0272 0.633903 4.136826 -0.547855
2010-11-25 07:22:59 51°13.662 2°55.959 14.0316 0.633903 4.1369 -0.58268
2010-11-25 07:23:04 51°13.662 2°55.958 14.0861 0.633903 4.1369 -0.547855
2010-11-25 07:23:09 51°13.662 2°55.955 13.9912 0.633903 4.136975 -0.547855
2010-11-25 07:23:14 51°13.663 2°55.952 14.0331 0.633903 4.137123 -0.513031
2010-11-25 07:23:19 51°13.664 2°55.948 14.0567 0.633903 4.137123 -0.513031
2010-11-25 07:23:24 51°13.665 2°55.944 14.0717 0.633903 4.137123 -0.547855
2010-11-25 07:23:30 51°13.667 2°55.937 14.0642 0.633903 4.137198 -0.547855
2010-11-25 07:23:35 51°13.669 2°55.931 14.0629 0.633903 4.137198 -0.547855
2010-11-25 07:23:41 51°13.671 2°55.923 14.0786 0.633903 4.137272 -0.513031
2010-11-25 07:23:47 51°13.673 2°55.914 14.1013 0.633903 4.137272 -0.58268
2010-11-25 07:23:53 51°13.676 2°55.904 14.1101 0.633903 4.137272 -0.58268
2010-11-25 07:23:58 51°13.677 2°55.896 14.0887 0.633903 4.137198 -0.58268
2010-11-25 07:24:03 51°13.679 2°55.887 14.0953 0.633903 4.137272 -0.547855
2010-11-25 07:24:08 51°13.681 2°55.878 14.1104 0.633903 4.137198 -0.547855
2010-11-25 07:24:13 51°13.683 2°55.869 14.1036 0.633903 4.137198 -0.58268
2010-11-25 07:24:18 51°13.685 2°55.86 14.1069 0.633903 4.137123 -0.58268
2010-11-25 07:24:23 51°13.687 2°55.851 14.1242 0.633903 4.137123 -0.58268
2010-11-25 07:24:28 51°13.689 2°55.842 14.1272 0.633903 4.137123 -0.547855
2010-11-25 07:24:33 51°13.691 2°55.834 14.1327 0.633903 4.136975 -0.58268
2010-11-25 07:24:38 51°13.692 2°55.825 14.1159 0.633903 4.136975 -0.547855
2010-11-25 07:24:43 51°13.694 2°55.817 14.1081 0.633903 4.1369 -0.547855
2010-11-25 07:24:48 51°13.695 2°55.808 14.1033 0.633903 4.136975 -0.513031
2010-11-25 07:24:53 51°13.697 2°55.8 14.112 0.633903 4.136975 -0.513031
2010-11-25 07:24:58 51°13.698 2°55.792 14.1156 0.633903 4.136975 -0.547855
2010-11-25 07:25:03 51°13.699 2°55.785 14.1151 0.633903 4.136975 -0.547855
2010-11-25 07:25:07 51°13.7 2°55.779 14.1119 0.633903 4.1369 -0.513031
2010-11-25 07:25:13 51°13.701 2°55.771 14.1097 0.633903 4.1369 -0.58268
2010-11-25 07:25:17 51°13.702 2°55.765 14.1067 0.633903 4.136826 -0.547855
2010-11-25 07:25:22 51°13.703 2°55.759 14.1008 0.633903 4.136826 -0.547855
2010-11-25 07:25:27 51°13.704 2°55.753 14.106 0.633903 4.136826 -0.547855
2010-11-25 07:25:32 51°13.704 2°55.748 14.1088 0.633903 4.136677 -0.547855
2010-11-25 07:25:37 51°13.705 2°55.743 14.1149 0.633903 4.136603 -0.547855
2010-11-25 07:25:42 51°13.705 2°55.74 14.1166 0.633903 4.136454 -0.547855
2010-11-25 07:25:47 51°13.706 2°55.738 14.1269 0.633903 4.13638 -0.58268
2010-11-25 07:25:51 51°13.706 2°55.737 14.1112 0.633903 4.13638 -0.58268
2010-11-25 07:25:56 51°13.707 2°55.736 14.1031 0.633903 4.13638 -0.58268
2010-11-25 07:26:01 51°13.708 2°55.734 14.0121 0.633799 4.135576 -0.547855
2010-11-25 07:26:06 51°13.708 2°55.733 14.0403 0.633903 4.136305 -0.58268
2010-11-25 07:26:11 51°13.709 2°55.73 14.0231 0.633903 4.136305 -0.547855
2010-11-25 07:26:15 51°13.708 2°55.728 14.058 0.633903 4.13638 -0.58268
2010-11-25 07:26:20 51°13.708 2°55.725 14.1073 0.633903 4.13638 -0.58268
2010-11-25 07:26:25 51°13.707 2°55.722 14.1109 0.633903 4.136528 -0.58268
2010-11-25 07:26:30 51°13.706 2°55.719 14.1274 0.633903 4.136454 -0.547855
2010-11-25 07:26:35 51°13.706 2°55.716 14.138 0.633903 4.136454 -0.58268
2010-11-25 07:26:40 51°13.706 2°55.715 14.1591 0.633903 4.136231 -0.547855
2010-11-25 07:26:45 51°13.707 2°55.714 14.1605 0.633799 4.135204 -0.547855
2010-11-25 07:26:50 51°13.709 2°55.714 14.1733 0.633799 4.135204 -0.547855
2010-11-25 07:26:55 51°13.711 2°55.714 14.1725 0.633903 4.135785 -0.547855
2010-11-25 07:26:59 51°13.714 2°55.714 14.1788 0.633799 4.135204 -0.513031
2010-11-25 07:27:04 51°13.718 2°55.713 14.1805 0.633799 4.135279 -0.58268
2010-11-25 07:27:09 51°13.722 2°55.712 14.1794 0.633799 4.135576 -0.58268
2010-11-25 07:27:14 51°13.727 2°55.71 14.1736 0.633799 4.135799 -0.547855
2010-11-25 07:27:19 51°13.732 2°55.708 14.1588 0.633799 4.135799 -0.547855
2010-11-25 07:27:24 51°13.737 2°55.704 14.1509 0.633799 4.135873 -0.547855
2010-11-25 07:27:29 51°13.744 2°55.7 14.1106 0.633799 4.135799 -0.58268
2010-11-25 07:27:34 51°13.751 2°55.695 14.0797 0.633799 4.135725 -0.547855
2010-11-25 07:27:39 51°13.758 2°55.69 14.085 0.633799 4.13565 -0.58268
2010-11-25 07:27:44 51°13.766 2°55.684 14.0612 0.633799 4.135725 -0.58268
2010-11-25 07:27:49 51°13.775 2°55.677 14.0534 0.633799 4.135725 -0.58268
2010-11-25 07:27:55 51°13.785 2°55.669 14.0292 0.633799 4.135873 -0.58268
2010-11-25 07:27:59 51°13.792 2°55.663 14.0166 0.633799 4.135948 -0.547855
2010-11-25 07:28:04 51°13.801 2°55.656 13.9983 0.633799 4.136171 -0.58268
2010-11-25 07:28:10 51°13.813 2°55.647 14.0352 0.633799 4.136245 -0.547855
2010-11-25 07:28:15 51°13.823 2°55.64 14.0395 0.633799 4.136468 -0.547855
2010-11-25 07:28:20 51°13.833 2°55.634 14.0403 0.633799 4.136468 -0.547855
2010-11-25 07:28:25 51°13.843 2°55.626 14.0226 0.633799 4.136765 -0.547855
2010-11-25 07:28:30 51°13.854 2°55.619 14.0429 0.633799 4.13684 -0.58268
2010-11-25 07:28:35 51°13.864 2°55.611 14.0095 0.633799 4.136765 -0.547855
2010-11-25 07:28:39 51°13.873 2°55.606 14.0204 0.633799 4.136765 -0.547855
2010-11-25 07:28:44 51°13.883 2°55.599 14.0392 0.633799 4.13684 -0.58268
2010-11-25 07:28:49 51°13.894 2°55.592 14.0516 0.633799 4.13684 -0.58268
2010-11-25 07:28:54 51°13.905 2°55.584 14.069 0.633799 4.13684 -0.547855
2010-11-25 07:28:59 51°13.915 2°55.578 14.0631 0.633799 4.136989 -0.58268
2010-11-25 07:29:04 51°13.926 2°55.571 14.0784 0.633799 4.137063 -0.547855
2010-11-25 07:29:09 51°13.935 2°55.564 14.0618 0.633799 4.137137 -0.547855
2010-11-25 07:29:14 51°13.945 2°55.557 14.0616 0.633799 4.137212 -0.547855
2010-11-25 07:29:19 51°13.955 2°55.551 14.0827 0.633799 4.137212 -0.547855
2010-11-25 07:29:24 51°13.965 2°55.544 14.1014 0.633799 4.137212 -0.58268
2010-11-25 07:29:29 51°13.975 2°55.538 14.1018 0.633799 4.137212 -0.547855
2010-11-25 07:29:34 51°13.984 2°55.531 14.0554 0.633799 4.137212 -0.547855
2010-11-25 07:29:39 51°13.993 2°55.524 14.0703 0.633799 4.137137 -0.547855
2010-11-25 07:29:44 51°14.003 2°55.517 14.0598 0.633799 4.137137 -0.547855
2010-11-25 07:29:49 51°14.012 2°55.51 14.1106 0.633799 4.137137 -0.547855
2010-11-25 07:29:55 51°14.024 2°55.503 14.1076 0.633799 4.137063 -0.547855
2010-11-25 07:29:59 51°14.032 2°55.498 14.0751 0.633799 4.137286 -0.58268
2010-11-25 07:30:04 51°14.041 2°55.491 14.0736 0.633799 4.137361 -0.547855
2010-11-25 07:30:10 51°14.052 2°55.484 14.0958 0.633799 4.137361 -0.547855
2010-11-25 07:30:15 51°14.062 2°55.478 14.1027 0.633799 4.137435 -0.547855
2010-11-25 07:30:20 51°14.071 2°55.471 14.1069 0.633799 4.137435 -0.547855
2010-11-25 07:30:25 51°14.081 2°55.465 14.1007 0.633799 4.137435 -0.547855
2010-11-25 07:30:30 51°14.09 2°55.458 14.1314 0.633799 4.137361 -0.58268
2010-11-25 07:30:35 51°14.1 2°55.452 14.1212 0.633799 4.137286 -0.547855
2010-11-25 07:30:41 51°14.111 2°55.445 14.1138 0.633799 4.137361 -0.58268
2010-11-25 07:30:47 51°14.122 2°55.437 14.1182 0.633799 4.137435 -0.547855
2010-11-25 07:30:52 51°14.13 2°55.429 14.0826 0.633799 4.137435 -0.547855
2010-11-25 07:30:58 51°14.141 2°55.422 14.0734 0.633799 4.137509 -0.547855
2010-11-25 07:31:03 51°14.151 2°55.415 14.0694 0.633799 4.137509 -0.58268
2010-11-25 07:31:07 51°14.158 2°55.41 14.1125 0.633799 4.137509 -0.58268
2010-11-25 07:31:13 51°14.169 2°55.402 14.1201 0.633799 4.137584 -0.547855
2010-11-25 07:31:18 51°14.178 2°55.395 14.1238 0.633799 4.137733 -0.547855
2010-11-25 07:31:23 51°14.187 2°55.387 14.1178 0.633799 4.137733 -0.547855
2010-11-25 07:31:28 51°14.197 2°55.38 14.1183 0.633799 4.137733 -0.547855
2010-11-25 07:31:33 51°14.208 2°55.372 14.1121 0.633799 4.137658 -0.547855
2010-11-25 07:31:38 51°14.219 2°55.364 14.1236 0.633799 4.137658 -0.513031
2010-11-25 07:31:43 51°14.229 2°55.355 14.1284 0.633694 4.137003 -0.547855
2010-11-25 07:31:47 51°14.239 2°55.348 14.0885 0.633799 4.137881 -0.547855
2010-11-25 07:31:52 51°14.251 2°55.339 14.1017 0.633799 4.137881 -0.547855
2010-11-25 07:31:57 51°14.263 2°55.329 14.0771 0.633799 4.138105 -0.547855
2010-11-25 07:32:02 51°14.275 2°55.319 14.0768 0.633694 4.137449 -0.547855
2010-11-25 07:32:07 51°14.287 2°55.308 14.0895 0.633694 4.137375 -0.547855
2010-11-25 07:32:12 51°14.299 2°55.297 14.0736 0.633799 4.138477 -0.547855
2010-11-25 07:32:16 51°14.309 2°55.287 14.072 0.633799 4.138551 -0.547855
2010-11-25 07:32:22 51°14.324 2°55.272 14.0627 0.633799 4.138551 -0.547855
2010-11-25 07:32:27 51°14.336 2°55.257 14.0505 0.633799 4.138774 -0.547855
2010-11-25 07:32:32 51°14.349 2°55.243 13.9511 0.633799 4.1387 -0.547855
2010-11-25 07:32:37 51°14.362 2°55.228 13.9143 0.63359 4.137166 -0.547855
2010-11-25 07:32:42 51°14.374 2°55.212 13.8744 0.633799 4.138849 -0.547855
2010-11-25 07:32:47 51°14.387 2°55.196 13.9858 0.633799 4.138923 -0.547855
2010-11-25 07:32:52 51°14.4 2°55.179 13.9438 0.633799 4.138923 -0.547855
2010-11-25 07:32:58 51°14.416 2°55.16 13.898 0.633694 4.137896 -0.58268
2010-11-25 07:33:03 51°14.43 2°55.145 13.8817 0.633799 4.1387 -0.547855
2010-11-25 07:33:08 51°14.444 2°55.128 13.8775 0.63359 4.137166 -0.547855
2010-11-25 07:33:13 51°14.457 2°55.112 13.9615 0.633799 4.139221 -0.547855
2010-11-25 07:33:18 51°14.469 2°55.094 13.9164 0.633485 4.137477 -0.58268
2010-11-25 07:33:23 51°14.483 2°55.077 13.9099 0.633485 4.137477 -0.58268
2010-11-25 07:33:27 51°14.494 2°55.064 13.8185 0.633799 4.140115 -0.547855
2010-11-25 07:33:32 51°14.508 2°55.048 13.8484 0.63359 4.138729 -0.547855
2010-11-25 07:33:37 51°14.522 2°55.032 13.8807 0.633799 4.140264 -0.58268
2010-11-25 07:33:42 51°14.537 2°55.016 13.8874 0.633694 4.139459 -0.547855
2010-11-25 07:33:47 51°14.551 2°54.999 13.8904 0.633799 4.140637 -0.547855
2010-11-25 07:33:51 51°14.563 2°54.985 13.8454 0.633799 4.140637 -0.547855
2010-11-25 07:33:56 51°14.577 2°54.967 13.8879 0.633694 4.139832 -0.547855
2010-11-25 07:34:01 51°14.592 2°54.951 13.8521 0.633485 4.138297 -0.547855
2010-11-25 07:34:06 51°14.607 2°54.933 13.8196 0.633485 4.137999 -0.547855
2010-11-25 07:34:11 51°14.621 2°54.915 13.8545 0.633799 4.140786 -0.547855
2010-11-25 07:34:15 51°14.632 2°54.9 13.8383 0.633485 4.138371 -0.547855
2010-11-25 07:34:20 51°14.647 2°54.883 13.8017 0.633485 4.138371 -0.547855
2010-11-25 07:34:25 51°14.661 2°54.866 13.8311 0.63359 4.138952 -0.547855
2010-11-25 07:34:31 51°14.679 2°54.846 13.8465 0.63359 4.139027 -0.58268
2010-11-25 07:34:35 51°14.691 2°54.832 13.8351 0.633694 4.140204 -0.547855
2010-11-25 07:34:40 51°14.706 2°54.816 13.8099 0.633694 4.140353 -0.547855
2010-11-25 07:34:45 51°14.721 2°54.799 13.8915 0.633694 4.140428 -0.547855
2010-11-25 07:34:50 51°14.736 2°54.782 13.7957 0.633694 4.140428 -0.547855
2010-11-25 07:34:55 51°14.751 2°54.765 13.8032 0.633799 4.141382 -0.547855
2010-11-25 07:34:59 51°14.763 2°54.752 13.8027 0.633485 4.138743 -0.547855
2010-11-25 07:35:04 51°14.778 2°54.735 13.7849 0.633903 4.14174 -0.547855
2010-11-25 07:35:09 51°14.793 2°54.719 13.8441 0.633903 4.141591 -0.58268
2010-11-25 07:35:15 51°14.811 2°54.701 13.8264 0.63359 4.138952 -0.547855
2010-11-25 07:35:19 51°14.824 2°54.689 13.8045 0.63359 4.138952 -0.547855
2010-11-25 07:35:24 51°14.84 2°54.675 13.8414 0.633799 4.140711 -0.547855
2010-11-25 07:35:29 51°14.856 2°54.662 13.8478 0.633694 4.139757 -0.547855
2010-11-25 07:35:34 51°14.872 2°54.648 13.8234 0.633694 4.139906 -0.58268
2010-11-25 07:35:39 51°14.888 2°54.635 13.7963 0.633799 4.140786 -0.547855
2010-11-25 07:35:44 51°14.903 2°54.622 13.8531 0.633694 4.14013 -0.547855
2010-11-25 07:35:49 51°14.919 2°54.608 13.8405 0.633694 4.14013 -0.547855
2010-11-25 07:35:55 51°14.938 2°54.592 11.6177 0.63359 4.138952 -0.547855
2010-11-25 07:35:59 51°14.95 2°54.581 10.022 0.633694 4.138938 -0.547855
2010-11-25 07:36:04 51°14.966 2°54.567 9.7585 0.680209 4.475547 -0.373735
2010-11-25 07:36:09 51°14.981 2°54.554 9.3324 0.788862 5.248128 -0.338911
2010-11-25 07:36:14 51°14.997 2°54.54 9.1817 0.792733 5.298672 -0.095143
2010-11-25 07:36:19 51°15.012 2°54.527 9.0663 0.792733 5.298672 -0.095143
2010-11-25 07:36:24 51°15.027 2°54.514 9.0179 1.706077 12.376977 0.009329
2010-11-25 07:36:29 51°15.042 2°54.501 8.932 1.940862 14.600128 0.148626
2010-11-25 07:36:34 51°15.057 2°54.488 8.9128 2.446563 19.578742 0.113802
2010-11-25 07:36:39 51°15.072 2°54.473 8.8804 2.624326 21.801888 0.078977
2010-11-25 07:36:44 51°15.087 2°54.461 8.89 2.86629 24.644581 -0.025495
2010-11-25 07:36:49 51°15.101 2°54.447 8.8431 2.86629 24.644581 -0.025495
2010-11-25 07:36:54 51°15.117 2°54.434 8.8517 3.072964 27.123864 -0.025495
2010-11-25 07:36:59 51°15.131 2°54.42 8.8493 3.241034 29.142313 -0.025495
2010-11-25 07:37:04 51°15.146 2°54.407 8.8282 3.299107 29.939997 -0.060319
2010-11-25 07:37:10 51°15.164 2°54.391 8.8471 3.348542 30.62387 -0.095143
2010-11-25 07:37:14 51°15.176 2°54.382 8.8163 3.365724 30.908661 -0.095143
2010-11-25 07:37:19 51°15.192 2°54.37 8.8148 3.365724 30.908661 -0.095143
2010-11-25 07:37:24 51°15.207 2°54.359 8.837 3.366884 31.000598 -0.129967
2010-11-25 07:37:29 51°15.222 2°54.345 8.821 3.38491 31.254956 -0.095143
2010-11-25 07:37:34 51°15.237 2°54.333 8.8075 3.394398 31.399792 -0.129967
2010-11-25 07:37:39 51°15.252 2°54.321 8.795 3.394082 31.434931 -0.129967
2010-11-25 07:37:44 51°15.267 2°54.308 8.7791 3.393344 31.447664 -0.095143
2010-11-25 07:37:49 51°15.283 2°54.295 8.8152 3.393344 31.447664 -0.095143
2010-11-25 07:37:55 51°15.301 2°54.28 8.7941 3.391974 31.452457 -0.095143
2010-11-25 07:37:59 51°15.314 2°54.27 8.7988 3.40104 31.55665 -0.095143
2010-11-25 07:38:04 51°15.33 2°54.258 8.7958 3.406416 31.633925 -0.164791
2010-11-25 07:38:10 51°15.349 2°54.243 8.8011 3.406838 31.647785 -0.129967
2010-11-25 07:38:14 51°15.362 2°54.233 8.8007 3.425707 31.864453 -0.095143
2010-11-25 07:38:19 51°15.378 2°54.222 8.8071 3.425707 31.864453 -0.095143
2010-11-25 07:38:24 51°15.394 2°54.209 8.8129 3.409895 31.712313 -0.129967
2010-11-25 07:38:29 51°15.41 2°54.197 8.8117 3.414639 31.762 -0.129967
2010-11-25 07:38:34 51°15.426 2°54.185 8.8125 3.420647 31.828445 -0.129967
2010-11-25 07:38:39 51°15.442 2°54.172 8.807 3.426867 31.90228 -0.129967
2010-11-25 07:38:44 51°15.458 2°54.159 8.7965 3.434352 31.986289 -0.129967
2010-11-25 07:38:49 51°15.474 2°54.147 8.7879 3.434352 31.986289 -0.129967
2010-11-25 07:38:54 51°15.489 2°54.133 8.7939 3.435722 32.004907 -0.164791
2010-11-25 07:38:59 51°15.504 2°54.12 8.7823 3.437093 32.017591 -0.164791
2010-11-25 07:39:04 51°15.519 2°54.108 8.7857 3.453643 32.185041 -0.199615
2010-11-25 07:39:09 51°15.535 2°54.095 8.7723 3.461656 32.270936 -0.199615
2010-11-25 07:39:15 51°15.553 2°54.08 8.7669 3.450059 32.149454 -0.199615
2010-11-25 07:39:19 51°15.566 2°54.069 8.7626 3.450059 32.149454 -0.199615
2010-11-25 07:39:24 51°15.581 2°54.053 8.7625 3.456912 32.234548 -0.199615
2010-11-25 07:39:29 51°15.596 2°54.038 8.7669 3.469141 32.364931 -0.199615
2010-11-25 07:39:34 51°15.61 2°54.02 8.761 3.464608 32.324727 -0.234439
2010-11-25 07:39:39 51°15.624 2°54.003 8.7506 3.460391 32.284045 -0.234439
2010-11-25 07:39:44 51°15.637 2°53.983 8.7466 3.460496 32.291883 -0.199615
2010-11-25 07:39:49 51°15.65 2°53.962 8.7494 3.460496 32.291883 -0.199615
2010-11-25 07:39:55 51°15.664 2°53.937 8.7419 3.465451 32.352235 -0.199615
2010-11-25 07:39:59 51°15.674 2°53.919 8.7478 3.458493 32.285373 -0.234439
2010-11-25 07:40:04 51°15.685 2°53.897 8.7457 3.468192 32.391179 -0.234439
2010-11-25 07:40:09 51°15.697 2°53.875 8.7507 3.456596 32.271703 -0.199615
2010-11-25 07:40:14 51°15.71 2°53.853 8.7343 3.458915 32.302498 -0.234439
2010-11-25 07:40:19 51°15.722 2°53.833 8.7259 3.458915 32.302498 -0.234439
2010-11-25 07:40:24 51°15.735 2°53.812 8.717 3.468403 32.407671 -0.234439
2010-11-25 07:40:29 51°15.749 2°53.792 8.7217 3.461551 32.341098 -0.234439
2010-11-25 07:40:34 51°15.762 2°53.772 8.7276 3.476732 32.503915 -0.234439
2010-11-25 07:40:39 51°15.775 2°53.752 8.7346 3.459021 32.322368 -0.234439
2010-11-25 07:40:44 51°15.789 2°53.732 8.7355 3.460286 32.333989 -0.269263
2010-11-25 07:40:50 51°15.806 2°53.709 8.7291 3.460286 32.333989 -0.269263
2010-11-25 07:40:54 51°15.818 2°53.693 8.7262 3.465979 32.399083 -0.269263
2010-11-25 07:40:59 51°15.831 2°53.674 8.7291 3.460075 32.345338 -0.269263
2010-11-25 07:41:04 51°15.845 2°53.653 8.7235 3.45259 32.273673 -0.269263
2010-11-25 07:41:09 51°15.858 2°53.632 8.7239 3.452485 32.277084 -0.234439
2010-11-25 07:41:14 51°15.87 2°53.609 8.724 3.465557 32.409781 -0.269263
2010-11-25 07:41:19 51°15.881 2°53.585 8.7194 3.465557 32.409781 -0.269263
2010-11-25 07:41:24 51°15.893 2°53.562 8.7182 3.449428 32.243106 -0.269263
2010-11-25 07:41:30 51°15.906 2°53.532 8.7094 3.453961 32.290149 -0.234439
2010-11-25 07:41:35 51°15.916 2°53.507 8.7075 3.464925 32.406983 -0.269263
2010-11-25 07:41:39 51°15.924 2°53.486 8.7161 3.456491 32.320921 -0.234439
2010-11-25 07:41:44 51°15.933 2°53.46 8.722 3.467139 32.432994 -0.269263
2010-11-25 07:41:49 51°15.944 2°53.437 8.713 3.467139 32.432994 -0.269263
2010-11-25 07:41:54 51°15.955 2°53.414 8.7234 3.465768 32.424041 -0.199615
2010-11-25 07:41:59 51°15.968 2°53.393 8.716 3.470512 32.472571 -0.234439
2010-11-25 07:42:04 51°15.98 2°53.372 8.7142 3.468088 32.452668 -0.269263
2010-11-25 07:42:09 51°15.993 2°53.352 8.7254 3.466612 32.441109 -0.269263
2010-11-25 07:42:14 51°16.008 2°53.334 8.7231 3.473359 32.512743 -0.304087
2010-11-25 07:42:19 51°16.022 2°53.319 8.7124 3.473359 32.512743 -0.304087
2010-11-25 07:42:24 51°16.036 2°53.301 8.7204 3.474729 32.52396 -0.234439
2010-11-25 07:42:29 51°16.049 2°53.282 8.7198 3.484534 32.623613 -0.269263
2010-11-25 07:42:34 51°16.063 2°53.265 8.7146 3.478419 32.558525 -0.199615
2010-11-25 07:42:39 51°16.078 2°53.249 8.7107 3.474097 32.512843 -0.234439
2010-11-25 07:42:44 51°16.092 2°53.234 8.6975 3.472515 32.496409 -0.234439
2010-11-25 07:42:49 51°16.107 2°53.218 8.6917 3.472515 32.496409 -0.234439
2010-11-25 07:42:54 51°16.122 2°53.202 8.6921 3.468193 32.454519 -0.234439
2010-11-25 07:42:59 51°16.137 2°53.188 8.6862 3.474097 32.515114 -0.234439
2010-11-25 07:43:04 51°16.152 2°53.172 8.6859 3.478525 32.563412 -0.234439
2010-11-25 07:43:09 51°16.168 2°53.158 8.6876 3.475151 32.529858 -0.269263
2010-11-25 07:43:14 51°16.183 2°53.143 8.6813 3.476732 32.547054 -0.234439
2010-11-25 07:43:19 51°16.199 2°53.129 8.6829 3.476732 32.547054 -0.234439
2010-11-25 07:43:24 51°16.214 2°53.114 8.6927 3.471883 32.505728 -0.234439
2010-11-25 07:43:30 51°16.233 2°53.098 8.6854 3.480844 32.603468 -0.234439
2010-11-25 07:43:35 51°16.249 2°53.083 8.6923 3.480317 32.606341 -0.234439
2010-11-25 07:43:39 51°16.261 2°53.073 8.696 3.478525 32.589213 -0.234439
2010-11-25 07:43:44 51°16.277 2°53.058 8.7033 3.481793 32.630063 -0.199615
2010-11-25 07:43:49 51°16.293 2°53.044 8.7104 3.481793 32.630063 -0.199615
2010-11-25 07:43:54 51°16.308 2°53.03 8.7117 3.473148 32.543138 -0.234439
2010-11-25 07:43:59 51°16.323 2°53.016 8.7137 3.479369 32.608627 -0.269263
2010-11-25 07:44:04 51°16.338 2°53.003 8.7175 3.481688 32.631247 -0.234439
2010-11-25 07:44:09 51°16.353 2°52.988 8.726 3.483586 32.651 -0.269263
2010-11-25 07:44:14 51°16.368 2°52.975 8.7316 3.478631 32.597147 -0.234439
2010-11-25 07:44:19 51°16.382 2°52.961 8.7359 3.478631 32.597147 -0.234439
2010-11-25 07:44:24 51°16.397 2°52.947 8.7404 3.475046 32.557571 -0.199615
2010-11-25 07:44:30 51°16.415 2°52.931 8.7453 3.483375 32.639675 -0.234439
2010-11-25 07:44:35 51°16.43 2°52.919 8.7495 3.475046 32.549226 -0.234439
2010-11-25 07:44:40 51°16.445 2°52.904 8.7532 3.479263 32.590056 -0.234439
2010-11-25 07:44:44 51°16.457 2°52.893 8.7597 3.489173 32.688597 -0.234439
2010-11-25 07:44:50 51°16.476 2°52.875 8.76 3.489173 32.688597 -0.234439
2010-11-25 07:44:55 51°16.491 2°52.862 8.761 3.483374 32.624469 -0.234439
2010-11-25 07:44:59 51°16.503 2°52.85 8.7547 3.488646 32.673217 -0.269263
2010-11-25 07:45:04 51°16.519 2°52.836 8.7573 3.492441 32.707368 -0.269263
2010-11-25 07:45:09 51°16.534 2°52.821 8.7595 3.492125 32.69951 -0.269263
2010-11-25 07:45:14 51°16.55 2°52.808 8.7693 3.491808 32.691654 -0.234439
2010-11-25 07:45:19 51°16.565 2°52.792 8.7714 3.491808 32.691654 -0.234439
2010-11-25 07:45:24 51°16.581 2°52.78 8.7806 3.492757 32.696954 -0.234439
2010-11-25 07:45:29 51°16.596 2°52.767 8.7861 3.492441 32.690622 -0.234439
2010-11-25 07:45:34 51°16.612 2°52.755 8.795 3.486537 32.626971 -0.234439
2010-11-25 07:45:39 51°16.629 2°52.744 8.7924 3.494127 32.705878 -0.234439
2010-11-25 07:45:44 51°16.645 2°52.732 8.7985 3.494022 32.703259 -0.234439
2010-11-25 07:45:49 51°16.662 2°52.722 8.7998 3.494022 32.703259 -0.234439
2010-11-25 07:45:54 51°16.678 2°52.712 8.8026 3.491386 32.674339 -0.234439
2010-11-25 07:45:59 51°16.695 2°52.703 8.8051 3.495498 32.710993 -0.234439
2010-11-25 07:46:04 51°16.711 2°52.694 8.8027 3.490121 32.650554 -0.199615
2010-11-25 07:46:10 51°16.731 2°52.685 8.8033 3.499609 32.74155 -0.234439
2010-11-25 07:46:14 51°16.744 2°52.677 8.8058 3.503616 32.780902 -0.234439
2010-11-25 07:46:19 51°16.76 2°52.669 8.8057 3.503616 32.780902 -0.234439
2010-11-25 07:46:24 51°16.777 2°52.661 8.8054 3.50351 32.775234 -0.234439
2010-11-25 07:46:29 51°16.793 2°52.653 8.8058 3.503299 32.768472 -0.199615
2010-11-25 07:46:35 51°16.813 2°52.643 8.8058 3.494443 32.672674 -0.234439
2010-11-25 07:46:39 51°16.826 2°52.637 8.8057 3.508254 32.813863 -0.234439
2010-11-25 07:46:44 51°16.843 2°52.628 8.8094 3.50351 32.76457 -0.199615
2010-11-25 07:46:50 51°16.862 2°52.618 8.82 3.50351 32.76457 -0.199615
2010-11-25 07:46:54 51°16.876 2°52.611 8.8249 3.506884 32.798097 -0.199615
2010-11-25 07:46:59 51°16.893 2°52.603 8.8307 3.508676 32.815194 -0.199615
2010-11-25 07:47:04 51°16.909 2°52.594 8.841 3.51089 32.840489 -0.199615
2010-11-25 07:47:09 51°16.926 2°52.586 8.8498 3.510679 32.837535 -0.234439
2010-11-25 07:47:14 51°16.942 2°52.577 8.8543 3.513315 32.863399 -0.234439
2010-11-25 07:47:19 51°16.959 2°52.569 8.8638 3.513315 32.863399 -0.234439
2010-11-25 07:47:24 51°16.976 2°52.56 8.8693 3.512155 32.851347 -0.234439
2010-11-25 07:47:29 51°16.992 2°52.551 8.8757 3.518059 32.907356 -0.269263
2010-11-25 07:47:35 51°17.012 2°52.541 8.8762 3.516161 32.884577 -0.234439
2010-11-25 07:47:39 51°17.025 2°52.534 8.8784 3.522487 32.94343 -0.164791
2010-11-25 07:47:44 51°17.042 2°52.525 8.8826 3.523436 32.945639 -0.234439
2010-11-25 07:47:50 51°17.062 2°52.515 8.8859 3.523436 32.945639 -0.234439
2010-11-25 07:47:55 51°17.079 2°52.506 8.8843 3.525861 32.964711 -0.199615
2010-11-25 07:47:59 51°17.092 2°52.499 8.8884 3.517848 32.875376 -0.234439
2010-11-25 07:48:04 51°17.108 2°52.491 8.8869 3.529129 32.983353 -0.199615
2010-11-25 07:48:09 51°17.124 2°52.482 8.8857 3.531976 33.006026 -0.164791
2010-11-25 07:48:15 51°17.144 2°52.472 8.8843 3.531765 33.000008 -0.234439
2010-11-25 07:48:19 51°17.157 2°52.465 8.8807 3.531765 33.000008 -0.234439
2010-11-25 07:48:24 51°17.173 2°52.456 8.8818 3.536193 33.041393 -0.199615
2010-11-25 07:48:30 51°17.192 2°52.446 8.8745 3.536509 33.041612 -0.199615
2010-11-25 07:48:34 51°17.205 2°52.439 8.8662 3.536931 33.043692 -0.199615
2010-11-25 07:48:39 51°17.221 2°52.43 8.8608 3.535666 33.028259 -0.199615
2010-11-25 07:48:44 51°17.238 2°52.421 8.8571 3.539883 33.071277 -0.269263
2010-11-25 07:48:49 51°17.254 2°52.412 8.8594 3.539883 33.071277 -0.269263
2010-11-25 07:48:55 51°17.274 2°52.402 8.859 3.538091 33.052668 -0.234439
2010-11-25 07:48:59 51°17.287 2°52.395 8.8593 3.536931 33.041393 -0.269263
2010-11-25 07:49:04 51°17.304 2°52.386 8.8675 3.540094 33.075 -0.234439
2010-11-25 07:49:10 51°17.324 2°52.375 8.8672 3.542097 33.100408 -0.234439
2010-11-25 07:49:14 51°17.337 2°52.367 8.8722 3.531765 32.999242 -0.234439
2010-11-25 07:49:19 51°17.353 2°52.359 8.8766 3.531765 32.999242 -0.234439
2010-11-25 07:49:24 51°17.37 2°52.352 8.8835 3.537458 33.0622 -0.269263
2010-11-25 07:49:29 51°17.386 2°52.346 8.8932 3.540305 33.093306 -0.269263
2010-11-25 07:49:34 51°17.403 2°52.341 8.8961 3.539356 33.086519 -0.269263
2010-11-25 07:49:39 51°17.42 2°52.337 8.903 3.543468 33.128474 -0.269263
2010-11-25 07:49:44 51°17.437 2°52.333 8.9105 3.541676 33.108314 -0.234439
2010-11-25 07:49:49 51°17.454 2°52.331 8.9172 3.541676 33.108314 -0.234439
2010-11-25 07:49:55 51°17.473 2°52.328 8.9254 3.54389 33.128244 -0.269263
2010-11-25 07:49:59 51°17.487 2°52.326 8.9295 3.535139 33.034276 -0.269263
2010-11-25 07:50:03 51°17.5 2°52.324 8.9352 3.545366 33.136662 -0.269263
2010-11-25 07:50:09 51°17.521 2°52.322 8.9382 3.54041 33.077518 -0.269263
2010-11-25 07:50:14 51°17.538 2°52.321 8.9413 3.544206 33.111558 -0.269263
2010-11-25 07:50:19 51°17.554 2°52.32 8.9427 3.544206 33.111558 -0.269263
2010-11-25 07:50:23 51°17.568 2°52.319 8.9465 3.541675 33.077616 -0.269263
2010-11-25 07:50:30 51°17.59 2°52.319 8.9491 3.544205 33.097746 -0.234439
2010-11-25 07:50:35 51°17.606 2°52.318 8.953 3.545787 33.107256 -0.269263
2010-11-25 07:50:40 51°17.621 2°52.316 8.9568 3.555381 33.200694 -0.269263
2010-11-25 07:50:45 51°17.637 2°52.316 8.9577 3.559388 33.235357 -0.269263
2010-11-25 07:50:50 51°17.652 2°52.313 8.9548 3.559388 33.235357 -0.269263
2010-11-25 07:50:55 51°17.669 2°52.312 8.9524 3.560021 33.238844 -0.269263
2010-11-25 07:51:00 51°17.685 2°52.31 8.9487 3.562024 33.254247 -0.269263
2010-11-25 07:51:04 51°17.697 2°52.31 8.9474 3.561075 33.243629 -0.234439
2010-11-25 07:51:09 51°17.713 2°52.309 8.9406 3.565503 33.285737 -0.234439
2010-11-25 07:51:15 51°17.733 2°52.307 8.942 3.554959 33.173263 -0.269263
2010-11-25 07:51:19 51°17.746 2°52.306 8.9394 3.554959 33.173263 -0.269263
2010-11-25 07:51:24 51°17.76 2°52.304 8.94 3.556963 33.190202 -0.269263
2010-11-25 07:51:29 51°17.774 2°52.303 8.9331 3.555381 33.173799 -0.269263
2010-11-25 07:51:35 51°17.789 2°52.302 8.9333 3.56487 33.273009 -0.269263
2010-11-25 07:51:39 51°17.799 2°52.301 8.9282 3.566557 33.290514 -0.234439
2010-11-25 07:51:44 51°17.81 2°52.3 8.9274 3.565925 33.287032 -0.269263
2010-11-25 07:51:50 51°17.822 2°52.298 8.9269 3.565925 33.287032 -0.269263
2010-11-25 07:51:55 51°17.832 2°52.298 8.9265 3.565819 33.287478 -0.234439
2010-11-25 07:51:59 51°17.839 2°52.297 8.9245 3.564238 33.271065 -0.269263
2010-11-25 07:52:04 51°17.847 2°52.296 8.9233 3.56582 33.291332 -0.269263
2010-11-25 07:52:09 51°17.855 2°52.295 8.9234 3.564133 33.277675 -0.234439
2010-11-25 07:52:15 51°17.863 2°52.293 8.9208 3.563184 33.270136 -0.304087
2010-11-25 07:52:19 51°17.868 2°52.292 8.9134 3.563184 33.270136 -0.304087
2010-11-25 07:52:23 51°17.874 2°52.29 8.9124 3.563184 33.272448 -0.269263
2010-11-25 07:52:29 51°17.881 2°52.288 8.914 3.563078 33.272124 -0.269263
2010-11-25 07:52:35 51°17.889 2°52.287 8.9116 3.560759 33.251125 -0.269263
2010-11-25 07:52:39 51°17.893 2°52.285 8.9106 3.561286 33.258138 -0.269263
2010-11-25 07:52:43 51°17.898 2°52.284 8.9067 3.561708 33.263287 -0.269263
2010-11-25 07:52:49 51°17.907 2°52.281 8.9077 3.561708 33.263287 -0.269263
2010-11-25 07:52:54 51°17.914 2°52.28 8.9091 3.560337 33.251368 -0.269263
2010-11-25 07:52:59 51°17.923 2°52.278 8.9055 3.560337 33.254449 -0.269263
2010-11-25 07:53:04 51°17.931 2°52.276 8.9025 3.559704 33.250962 -0.269263
2010-11-25 07:53:09 51°17.94 2°52.274 8.9038 3.555276 33.205753 -0.269263
2010-11-25 07:53:15 51°17.951 2°52.272 8.9025 3.558861 33.246825 -0.269263
2010-11-25 07:53:19 51°17.959 2°52.27 8.9064 3.558861 33.246825 -0.269263
2010-11-25 07:53:24 51°17.969 2°52.268 8.907 3.554327 33.202055 -0.269263
2010-11-25 07:53:30 51°17.981 2°52.265 8.9075 3.553484 33.194836 -0.304087
2010-11-25 07:53:34 51°17.989 2°52.264 8.9092 3.558966 33.251773 -0.234439
2010-11-25 07:53:39 51°17.999 2°52.263 8.9131 3.557807 33.24435 -0.234439
2010-11-25 07:53:44 51°18.009 2°52.262 8.916 3.557701 33.241714 -0.234439
2010-11-25 07:53:49 51°18.019 2°52.261 8.9168 3.557701 33.241714 -0.234439
2010-11-25 07:53:54 51°18.028 2°52.259 8.9153 3.553378 33.199127 -0.269263
2010-11-25 07:53:59 51°18.039 2°52.257 8.9183 3.554749 33.211822 -0.234439
2010-11-25 07:54:03 51°18.047 2°52.256 8.9169 3.557174 33.237009 -0.269263
2010-11-25 07:54:09 51°18.059 2°52.254 8.9195 3.557069 33.234373 -0.234439
2010-11-25 07:54:14 51°18.069 2°52.252 8.9191 3.555698 33.218598 -0.269263
2010-11-25 07:54:19 51°18.08 2°52.251 8.9194 3.555698 33.218598 -0.269263
2010-11-25 07:54:24 51°18.09 2°52.25 8.9245 3.555909 33.217708 -0.234439
2010-11-25 07:54:29 51°18.1 2°52.248 8.9207 3.555065 33.206641 -0.234439
2010-11-25 07:54:35 51°18.112 2°52.246 8.9179 3.557807 33.236646 -0.269263
2010-11-25 07:54:39 51°18.12 2°52.245 8.9198 3.557912 33.236201 -0.234439
2010-11-25 07:54:43 51°18.127 2°52.244 8.921 3.553695 33.191641 -0.269263
2010-11-25 07:54:50 51°18.14 2°52.241 8.9232 3.553695 33.191641 -0.269263
2010-11-25 07:54:54 51°18.148 2°52.24 8.9236 3.554538 33.200398 -0.269263
2010-11-25 07:54:59 51°18.158 2°52.237 8.9258 3.557701 33.230161 -0.269263
2010-11-25 07:55:03 51°18.166 2°52.236 8.9278 3.557279 33.226552 -0.234439
2010-11-25 07:55:09 51°18.179 2°52.233 8.929 3.553273 33.18188 -0.234439
2010-11-25 07:55:14 51°18.189 2°52.232 8.9334 3.555382 33.206847 -0.234439
2010-11-25 07:55:19 51°18.199 2°52.231 8.9357 3.555382 33.206847 -0.234439
2010-11-25 07:55:24 51°18.209 2°52.229 8.9368 3.556225 33.214066 -0.234439
2010-11-25 07:55:29 51°18.219 2°52.227 8.9402 3.555698 33.209362 -0.269263
2010-11-25 07:55:35 51°18.23 2°52.226 8.9454 3.555171 33.20235 -0.234439
2010-11-25 07:55:39 51°18.238 2°52.224 8.9487 3.555698 33.205515 -0.234439
2010-11-25 07:55:43 51°18.245 2°52.222 8.9512 3.555698 33.204746 -0.269263
2010-11-25 07:55:49 51°18.257 2°52.22 8.9523 3.555698 33.204746 -0.269263
2010-11-25 07:55:55 51°18.268 2°52.218 8.9545 3.557279 33.217316 -0.269263
2010-11-25 07:55:59 51°18.276 2°52.217 8.9567 3.557806 33.223558 -0.234439
2010-11-25 07:56:03 51°18.283 2°52.216 8.9579 3.558123 33.222225 -0.234439
2010-11-25 07:56:09 51°18.294 2°52.215 8.9575 3.555276 33.191142 -0.234439
2010-11-25 07:56:14 51°18.303 2°52.214 8.9607 3.558017 33.215745 -0.234439
2010-11-25 07:56:19 51°18.312 2°52.214 8.9598 3.558017 33.215745 -0.234439
2010-11-25 07:56:23 51°18.318 2°52.214 8.9624 3.559388 33.226892 -0.269263
2010-11-25 07:56:29 51°18.328 2°52.213 8.9626 3.559704 33.227867 -0.234439
2010-11-25 07:56:34 51°18.337 2°52.213 8.9669 3.559282 33.218107 -0.234439
2010-11-25 07:56:39 51°18.345 2°52.212 8.9662 3.560126 33.226858 -0.234439
2010-11-25 07:56:44 51°18.353 2°52.213 8.9646 3.559915 33.222364 -0.234439
2010-11-25 07:56:50 51°18.363 2°52.213 8.9654 3.559915 33.222364 -0.234439
2010-11-25 07:56:55 51°18.371 2°52.212 8.9626 3.561391 33.236139 -0.269263
2010-11-25 07:56:59 51°18.377 2°52.213 8.9636 3.55865 33.206932 -0.199615
2010-11-25 07:57:04 51°18.384 2°52.212 8.9643 3.239674 29.921125 -0.234439
2010-11-25 07:57:10 51°18.393 2°52.212 8.9648 3.560653 33.224638 -0.234439
2010-11-25 07:57:15 51°18.402 2°52.212 8.9623 3.560231 33.220263 -0.269263
2010-11-25 07:57:19 51°18.408 2°52.212 8.9629 3.560231 33.220263 -0.269263
2010-11-25 07:57:23 51°18.414 2°52.212 8.9643 3.560758 33.224194 -0.269263
2010-11-25 07:57:30 51°18.425 2°52.212 8.9633 3.560864 33.225287 -0.234439
2010-11-25 07:57:34 51°18.432 2°52.213 8.9676 3.560547 33.221238 -0.269263
2010-11-25 07:57:39 51°18.439 2°52.213 8.9621 3.560337 33.220588 -0.269263
2010-11-25 07:57:43 51°18.446 2°52.213 8.9621 3.559915 33.215445 -0.269263
2010-11-25 07:57:49 51°18.456 2°52.212 8.9613 3.559915 33.215445 -0.269263
2010-11-25 07:57:55 51°18.466 2°52.212 8.9615 3.560126 33.219169 -0.234439
2010-11-25 07:57:59 51°18.472 2°52.212 8.961 3.559809 33.21512 -0.269263
2010-11-25 07:58:04 51°18.48 2°52.212 8.9603 3.559071 33.205928 -0.269263
2010-11-25 07:58:09 51°18.489 2°52.21 8.9612 3.559704 33.213258 -0.234439
2010-11-25 07:58:14 51°18.498 2°52.21 8.9599 3.55886 33.204509 -0.234439
2010-11-25 07:58:19 51°18.508 2°52.209 8.9579 3.55886 33.204509 -0.234439
2010-11-25 07:58:24 51°18.517 2°52.209 8.9595 3.559071 33.207465 -0.269263
2010-11-25 07:58:29 51°18.527 2°52.209 8.9578 3.55865 33.202322 -0.234439
2010-11-25 07:58:35 51°18.539 2°52.209 8.9576 3.557912 33.196204 -0.234439
2010-11-25 07:58:39 51°18.546 2°52.209 8.9557 3.557912 33.196972 -0.269263
2010-11-25 07:58:44 51°18.556 2°52.209 8.9582 3.557384 33.191504 -0.269263
2010-11-25 07:58:49 51°18.565 2°52.208 8.9538 3.557384 33.191504 -0.269263
2010-11-25 07:58:54 51°18.575 2°52.209 8.9534 3.556646 33.186153 -0.269263
2010-11-25 07:58:59 51°18.584 2°52.209 8.9535 3.556646 33.186153 -0.234439
2010-11-25 07:59:04 51°18.593 2°52.209 8.9543 3.556225 33.181779 -0.304087
2010-11-25 07:59:09 51°18.602 2°52.208 8.9584 3.55633 33.182105 -0.234439
2010-11-25 07:59:15 51°18.614 2°52.208 8.9634 3.555592 33.175986 -0.234439
2010-11-25 07:59:19 51°18.621 2°52.208 8.9663 3.555592 33.175986 -0.234439
2010-11-25 07:59:24 51°18.631 2°52.208 8.9696 3.555065 33.171286 -0.269263
2010-11-25 07:59:29 51°18.64 2°52.208 8.9731 3.554854 33.169099 -0.269263
2010-11-25 07:59:34 51°18.648 2°52.208 8.9724 3.554327 33.168237 -0.234439
2010-11-25 07:59:39 51°18.658 2°52.207 8.9729 3.554221 33.166376 -0.269263
2010-11-25 07:59:43 51°18.665 2°52.207 8.9727 3.553589 33.159046 -0.199615
2010-11-25 07:59:49 51°18.676 2°52.206 8.9739 3.553589 33.159046 -0.199615
2010-11-25 07:59:54 51°18.685 2°52.206 8.9712 3.552851 33.149089 -0.234439
2010-11-25 07:59:59 51°18.694 2°52.206 8.9717 3.553062 33.147441 -0.234439
2010-11-25 08:00:04 51°18.704 2°52.205 8.9706 3.552218 33.136393 -0.269263
2010-11-25 08:00:09 51°18.714 2°52.204 8.9692 3.55148 33.123376 -0.199615
2010-11-25 08:00:15 51°18.725 2°52.203 8.9692 3.550531 33.113539 -0.234439
2010-11-25 08:00:19 51°18.733 2°52.203 8.969 3.550531 33.113539 -0.234439
2010-11-25 08:00:23 51°18.741 2°52.203 8.9687 3.550531 33.112773 -0.269263
2010-11-25 08:00:29 51°18.753 2°52.202 8.9708 3.549687 33.100966 -0.234439
2010-11-25 08:00:34 51°18.764 2°52.2 8.9725 3.548317 33.089057 -0.234439
2010-11-25 08:00:39 51°18.773 2°52.2 8.973 3.54779 33.084358 -0.234439
2010-11-25 08:00:44 51°18.783 2°52.199 8.9723 3.547579 33.083703 -0.269263
2010-11-25 08:00:49 51°18.792 2°52.199 8.9705 3.547579 33.083703 -0.269263
2010-11-25 08:00:55 51°18.801 2°52.201 8.9689 3.545997 33.068841 -0.234439
2010-11-25 08:00:59 51°18.807 2°52.201 8.9729 3.545997 33.068076 -0.234439
2010-11-25 08:01:04 51°18.815 2°52.201 8.9701 3.544732 33.054198 -0.199615
2010-11-25 08:01:09 51°18.823 2°52.2 8.9661 3.543467 33.038029 -0.199615
2010-11-25 08:01:15 51°18.833 2°52.199 8.9594 3.54294 33.033331 -0.234439
2010-11-25 08:01:19 51°18.84 2°52.199 8.9584 3.54294 33.033331 -0.234439
2010-11-25 08:01:23 51°18.847 2°52.198 8.9502 3.541569 33.017601 -0.199615
2010-11-25 08:01:29 51°18.858 2°52.197 8.9459 3.54178 33.019785 -0.199615
2010-11-25 08:01:34 51°18.867 2°52.196 8.9416 3.540831 33.011481 -0.234439
2010-11-25 08:01:39 51°18.875 2°52.195 8.9414 3.539987 33.004269 -0.199615
2010-11-25 08:01:44 51°18.884 2°52.194 8.936 3.537563 32.98067 -0.234439
2010-11-25 08:01:49 51°18.893 2°52.194 8.937 3.537563 32.98067 -0.234439
2010-11-25 08:01:55 51°18.903 2°52.192 8.936 3.535032 32.957505 -0.234439
2010-11-25 08:01:59 51°18.91 2°52.192 8.9326 3.535349 32.964596 -0.234439
2010-11-25 08:02:04 51°18.919 2°52.192 8.9307 3.532924 32.943281 -0.199615
2010-11-25 08:02:09 51°18.926 2°52.192 8.9285 3.531975 32.937261 -0.199615
2010-11-25 08:02:15 51°18.936 2°52.191 8.9267 3.530288 32.925115 -0.199615
2010-11-25 08:02:19 51°18.941 2°52.192 8.9205 3.530288 32.925115 -0.199615
2010-11-25 08:02:24 51°18.948 2°52.192 8.9164 3.529234 32.917237 -0.199615
2010-11-25 08:02:29 51°18.955 2°52.193 8.9149 3.528496 32.911874 -0.269263
2010-11-25 08:02:34 51°18.962 2°52.192 8.9092 3.527547 32.905087 -0.199615
2010-11-25 08:02:39 51°18.97 2°52.192 8.9097 3.526176 32.891642 -0.199615
2010-11-25 08:02:44 51°18.977 2°52.191 8.9096 3.524911 32.881575 -0.234439
2010-11-25 08:02:49 51°18.985 2°52.191 8.9066 3.524911 32.881575 -0.234439
2010-11-25 08:02:55 51°18.995 2°52.191 8.9055 3.524278 32.877303 -0.269263
2010-11-25 08:02:59 51°19.001 2°52.19 8.8993 3.522802 32.864287 -0.199615
2010-11-25 08:03:04 51°19.009 2°52.19 8.8979 3.51985 32.838253 -0.199615
2010-11-25 08:03:09 51°19.017 2°52.189 8.8992 3.520272 32.847951 -0.199615
2010-11-25 08:03:15 51°19.027 2°52.188 8.8984 3.518691 32.833077 -0.234439
2010-11-25 08:03:19 51°19.034 2°52.187 8.8991 3.518691 32.833077 -0.234439
2010-11-25 08:03:23 51°19.041 2°52.187 8.8961 3.518375 32.832841 -0.234439
2010-11-25 08:03:29 51°19.051 2°52.186 8.8974 3.517531 32.826379 -0.199615
2010-11-25 08:03:35 51°19.062 2°52.185 8.8918 3.516688 32.819915 -0.199615
2010-11-25 08:03:39 51°19.069 2°52.185 8.8868 3.514685 32.802947 -0.199615
2010-11-25 08:03:43 51°19.077 2°52.184 8.886 3.513525 32.792442 -0.234439
2010-11-25 08:03:50 51°19.09 2°52.184 8.8835 3.513525 32.792442 -0.234439
2010-11-25 08:03:54 51°19.097 2°52.183 8.8813 3.513525 32.793963 -0.234439
2010-11-25 08:03:59 51°19.106 2°52.183 8.8769 3.512576 32.784884 -0.199615
2010-11-25 08:04:04 51°19.115 2°52.184 8.8754 3.511943 32.781364 -0.234439
2010-11-25 08:04:09 51°19.124 2°52.184 8.876 3.510257 32.765391 -0.234439
2010-11-25 08:04:15 51°19.133 2°52.183 8.8792 3.509413 32.759684 -0.269263
2010-11-25 08:04:19 51°19.14 2°52.182 8.8727 3.509413 32.759684 -0.269263
2010-11-25 08:04:24 51°19.148 2°52.182 8.8708 3.507094 32.737909 -0.199615
2010-11-25 08:04:29 51°19.156 2°52.181 8.8748 3.50604 32.729253 -0.234439
2010-11-25 08:04:35 51°19.167 2°52.179 8.8627 3.507305 32.743133 -0.199615
2010-11-25 08:04:39 51°19.174 2°52.179 8.862 3.504458 32.716648 -0.234439
2010-11-25 08:04:43 51°19.182 2°52.178 8.8646 3.503193 32.705804 -0.234439
2010-11-25 08:04:49 51°19.192 2°52.178 8.8582 3.503193 32.705804 -0.234439
2010-11-25 08:04:55 51°19.203 2°52.176 8.8535 3.502033 32.695294 -0.234439
2010-11-25 08:04:59 51°19.21 2°52.176 8.8531 3.50119 32.68958 -0.199615
2010-11-25 08:05:03 51°19.218 2°52.175 8.8489 3.500136 32.680162 -0.199615
2010-11-25 08:05:09 51°19.229 2°52.174 8.8411 3.499081 32.67226 -0.234439
2010-11-25 08:05:14 51°19.238 2°52.173 8.8328 3.497816 32.661413 -0.234439
2010-11-25 08:05:19 51°19.248 2°52.172 8.8373 3.497816 32.661413 -0.234439
2010-11-25 08:05:24 51°19.257 2°52.171 8.8358 3.498133 32.666209 -0.199615
2010-11-25 08:05:29 51°19.266 2°52.17 8.8304 3.497078 32.658305 -0.199615
2010-11-25 08:05:35 51°19.277 2°52.169 8.827 3.49613 32.652252 -0.199615
2010-11-25 08:05:39 51°19.284 2°52.168 8.8214 3.495392 32.645354 -0.234439
2010-11-25 08:05:44 51°19.293 2°52.167 8.8216 3.494021 32.637955 -0.199615
2010-11-25 08:05:49 51°19.301 2°52.166 8.8169 3.494021 32.637955 -0.199615
2010-11-25 08:05:55 51°19.312 2°52.164 8.8062 3.492967 32.630805 -0.234439
2010-11-25 08:05:59 51°19.32 2°52.164 8.8044 3.491069 32.613387 -0.199615
2010-11-25 08:06:03 51°19.327 2°52.163 8.7936 3.490226 32.609179 -0.234439
2010-11-25 08:06:10 51°19.339 2°52.161 8.7898 3.489066 32.600931 -0.199615
2010-11-25 08:06:14 51°19.346 2°52.16 8.7797 3.487907 32.594196 -0.199615
2010-11-25 08:06:19 51°19.355 2°52.159 8.7764 3.487907 32.594196 -0.199615
2010-11-25 08:06:24 51°19.364 2°52.158 8.7735 3.487801 32.595374 -0.234439
2010-11-25 08:06:29 51°19.372 2°52.157 8.7639 3.485587 32.578451 -0.234439
2010-11-25 08:06:35 51°19.383 2°52.156 8.7601 3.483479 32.559591 -0.199615
2010-11-25 08:06:39 51°19.389 2°52.155 8.7468 3.482425 32.550161 -0.199615
2010-11-25 08:06:44 51°19.398 2°52.153 8.7331 3.48116 32.546106 -0.234439
2010-11-25 08:06:49 51°19.407 2°52.152 8.7221 3.48116 32.546106 -0.234439
2010-11-25 08:06:54 51°19.416 2°52.151 8.6957 3.478946 32.530683 -0.234439
2010-11-25 08:06:59 51°19.425 2°52.149 8.6866 3.477048 32.516272 -0.234439
2010-11-25 08:07:04 51°19.435 2°52.148 8.6724 3.474835 32.500841 -0.234439
2010-11-25 08:07:09 51°19.444 2°52.146 8.6686 3.473253 32.493488 -0.234439
2010-11-25 08:07:15 51°19.455 2°52.145 8.6519 3.471356 32.479822 -0.234439
2010-11-25 08:07:19 51°19.462 2°52.144 8.6487 3.471356 32.479822 -0.234439
2010-11-25 08:07:24 51°19.472 2°52.143 8.6388 3.467982 32.453084 -0.234439
2010-11-25 08:07:29 51°19.481 2°52.142 8.6351 3.464925 32.4334 -0.199615
2010-11-25 08:07:35 51°19.491 2°52.142 8.6248 3.459338 32.391935 -0.199615
2010-11-25 08:07:39 51°19.497 2°52.142 8.6125 3.454173 32.351055 -0.234439
2010-11-25 08:07:43 51°19.503 2°52.141 8.6074 3.448691 32.30536 -0.234439
2010-11-25 08:07:49 51°19.513 2°52.139 8.6023 3.448691 32.30536 -0.234439
2010-11-25 08:07:55 51°19.523 2°52.137 8.596 3.442998 32.25896 -0.199615
2010-11-25 08:07:59 51°19.53 2°52.135 8.5963 3.435725 32.198346 -0.199615
2010-11-25 08:08:03 51°19.537 2°52.134 8.5998 3.431824 32.164535 -0.199615
2010-11-25 08:08:10 51°19.549 2°52.132 8.5963 3.427819 32.131871 -0.199615
2010-11-25 08:08:14 51°19.555 2°52.131 8.5941 3.421494 32.07357 -0.199615
2010-11-25 08:08:19 51°19.564 2°52.13 8.5994 3.421494 32.07357 -0.199615
2010-11-25 08:08:24 51°19.572 2°52.129 8.59 3.416328 32.030317 -0.164791
2010-11-25 08:08:29 51°19.579 2°52.129 8.5911 3.411269 31.987398 -0.199615
2010-11-25 08:08:35 51°19.589 2°52.127 8.591 3.406947 31.949155 -0.164791
2010-11-25 08:08:39 51°19.596 2°52.126 8.5902 3.403468 31.916695 -0.234439
2010-11-25 08:08:44 51°19.604 2°52.124 8.5906 3.401044 31.893708 -0.164791
2010-11-25 08:08:49 51°19.611 2°52.124 8.5853 3.401044 31.893708 -0.164791
2010-11-25 08:08:55 51°19.619 2°52.124 8.585 3.398936 31.873265 -0.164791
2010-11-25 08:09:00 51°19.625 2°52.122 8.5805 3.397038 31.855016 -0.199615
2010-11-25 08:09:05 51°19.631 2°52.121 8.5828 3.395668 31.842994 -0.129967
2010-11-25 08:09:10 51°19.638 2°52.119 8.575 3.394403 31.832069 -0.199615
2010-11-25 08:09:15 51°19.645 2°52.117 8.5647 3.393138 31.821887 -0.164791
2010-11-25 08:09:19 51°19.651 2°52.115 8.5644 3.393138 31.821887 -0.164791
2010-11-25 08:09:24 51°19.659 2°52.113 8.5619 3.391873 31.807983 -0.199615
2010-11-25 08:09:29 51°19.667 2°52.112 8.5632 3.390924 31.798114 -0.164791
2010-11-25 08:09:34 51°19.675 2°52.11 8.5613 3.38966 31.78793 -0.164791
2010-11-25 08:09:39 51°19.683 2°52.108 8.5602 3.387657 31.770812 -0.199615
2010-11-25 08:09:44 51°19.691 2°52.106 8.5592 3.386814 31.764269 -0.199615
2010-11-25 08:09:49 51°19.7 2°52.104 8.5607 3.386814 31.764269 -0.199615
2010-11-25 08:09:55 51°19.71 2°52.103 8.5638 3.384916 31.750474 -0.199615
2010-11-25 08:09:59 51°19.717 2°52.103 8.562 3.383124 31.734801 -0.199615
2010-11-25 08:10:04 51°19.725 2°52.101 8.5707 3.382176 31.727158 -0.199615
2010-11-25 08:10:09 51°19.734 2°52.1 8.5676 3.381122 31.717676 -0.199615
2010-11-25 08:10:15 51°19.744 2°52.098 8.5721 3.380489 31.714065 -0.164791
2010-11-25 08:10:19 51°19.751 2°52.098 8.5764 3.380489 31.714065 -0.164791
2010-11-25 08:10:23 51°19.758 2°52.097 8.58 3.379224 31.702387 -0.164791
2010-11-25 08:10:29 51°19.768 2°52.096 8.583 3.379013 31.700936 -0.199615
2010-11-25 08:10:34 51°19.777 2°52.095 8.5844 3.377327 31.684128 -0.164791
2010-11-25 08:10:39 51°19.786 2°52.094 8.5851 3.377116 31.680451 -0.129967
2010-11-25 08:10:44 51°19.795 2°52.093 8.5882 3.377011 31.677129 -0.164791
2010-11-25 08:10:49 51°19.803 2°52.092 8.5854 3.377011 31.677129 -0.164791
2010-11-25 08:10:55 51°19.813 2°52.092 8.5836 3.376694 31.673098 -0.129967
2010-11-25 08:10:59 51°19.819 2°52.091 8.5823 3.377327 31.67597 -0.199615
2010-11-25 08:11:04 51°19.827 2°52.091 8.5809 3.377538 31.675938 -0.164791
2010-11-25 08:11:09 51°19.833 2°52.09 8.5804 3.378275 31.680648 -0.164791
2010-11-25 08:11:14 51°19.839 2°52.09 8.5701 3.378275 31.678423 -0.199615
2010-11-25 08:11:19 51°19.846 2°52.09 8.5695 3.378275 31.678423 -0.199615
2010-11-25 08:11:24 51°19.852 2°52.089 8.5706 3.377748 31.67146 -0.164791
2010-11-25 08:11:29 51°19.859 2°52.089 8.5724 3.377748 31.669977 -0.164791
2010-11-25 08:11:35 51°19.866 2°52.088 8.5717 3.377116 31.662659 -0.164791
2010-11-25 08:11:39 51°19.872 2°52.087 8.5745 3.374692 31.641152 -0.164791
2010-11-25 08:11:44 51°19.879 2°52.085 8.5721 3.37427 31.637508 -0.164791
2010-11-25 08:11:49 51°19.887 2°52.084 8.575 3.37427 31.637508 -0.164791
2010-11-25 08:11:55 51°19.896 2°52.083 8.5761 3.372478 31.621834 -0.129967
2010-11-25 08:11:59 51°19.902 2°52.082 8.5797 3.370264 31.601035 -0.199615
2010-11-25 08:12:03 51°19.907 2°52.08 8.5839 3.369316 31.593389 -0.164791
2010-11-25 08:12:09 51°19.915 2°52.079 8.5895 3.368683 31.586073 -0.129967
2010-11-25 08:12:15 51°19.923 2°52.078 8.5881 3.368051 31.578757 -0.129967
2010-11-25 08:12:19 51°19.928 2°52.077 8.5926 3.368051 31.578757 -0.129967
2010-11-25 08:12:23 51°19.934 2°52.075 8.5948 3.367102 31.568154 -0.164791
2010-11-25 08:12:29 51°19.943 2°52.074 8.5983 3.367102 31.568893 -0.129967
2010-11-25 08:12:34 51°19.95 2°52.073 8.6017 3.366997 31.565581 -0.129967
2010-11-25 08:12:39 51°19.957 2°52.071 8.6045 3.366364 31.556051 -0.164791
2010-11-25 08:12:44 51°19.965 2°52.07 8.6033 3.366681 31.557861 -0.129967
2010-11-25 08:12:49 51°19.973 2°52.069 8.5976 3.366681 31.557861 -0.129967
2010-11-25 08:12:55 51°19.983 2°52.067 8.5917 3.367418 31.563316 -0.164791
2010-11-25 08:12:59 51°19.989 2°52.066 8.5832 3.367945 31.567317 -0.164791
2010-11-25 08:13:04 51°19.998 2°52.065 8.5833 3.368472 31.569102 -0.164791
2010-11-25 08:13:09 51°20.006 2°52.064 8.5796 3.369105 31.572721 -0.164791
2010-11-25 08:13:15 51°20.017 2°52.062 8.5825 3.369737 31.576339 -0.164791
2010-11-25 08:13:19 51°20.024 2°52.061 8.5738 3.369737 31.576339 -0.164791
2010-11-25 08:13:23 51°20.031 2°52.06 8.575 3.370686 31.58472 -0.164791
2010-11-25 08:13:29 51°20.041 2°52.058 8.569 3.370159 31.579243 -0.164791
2010-11-25 08:13:34 51°20.049 2°52.058 8.5691 3.37037 31.584389 -0.164791
2010-11-25 08:13:39 51°20.057 2°52.056 8.569 3.369526 31.579319 -0.164791
2010-11-25 08:13:44 51°20.065 2°52.054 8.5734 3.36921 31.578987 -0.199615
2010-11-25 08:13:49 51°20.074 2°52.053 8.5687 3.36921 31.578987 -0.199615
2010-11-25 08:13:55 51°20.085 2°52.051 8.5675 3.368472 31.574273 -0.129967
2010-11-25 08:13:59 51°20.092 2°52.05 8.5689 3.368472 31.576489 -0.164791
2010-11-25 08:14:03 51°20.098 2°52.05 8.5732 3.368051 31.575801 -0.164791
2010-11-25 08:14:09 51°20.109 2°52.048 8.5748 3.368156 31.578375 -0.164791
2010-11-25 08:14:15 51°20.119 2°52.047 8.5803 3.36784 31.578043 -0.164791
2010-11-25 08:14:19 51°20.126 2°52.046 8.5871 3.36784 31.578043 -0.164791
2010-11-25 08:14:23 51°20.132 2°52.046 8.5944 3.368473 31.585359 -0.199615
2010-11-25 08:14:29 51°20.142 2°52.044 8.599 3.367629 31.578808 -0.199615
2010-11-25 08:14:34 51°20.15 2°52.043 8.6054 3.368262 31.585385 -0.129967
2010-11-25 08:14:39 51°20.157 2°52.043 8.6124 3.368473 31.586838 -0.164791
2010-11-25 08:14:43 51°20.163 2°52.042 8.6177 3.368578 31.585716 -0.199615
2010-11-25 08:14:50 51°20.173 2°52.04 8.6245 3.368578 31.585716 -0.199615
2010-11-25 08:14:54 51°20.179 2°52.039 8.6289 3.369421 31.594485 -0.164791
2010-11-25 08:14:59 51°20.186 2°52.038 8.6346 3.369843 31.592953 -0.129967
2010-11-25 08:15:04 51°20.193 2°52.038 8.6389 3.370264 31.591423 -0.164791
2010-11-25 08:15:10 51°20.202 2°52.036 8.6451 3.370897 31.593562 -0.164791
2010-11-25 08:15:14 51°20.208 2°52.035 8.6501 3.372162 31.600796 -0.164791
2010-11-25 08:15:19 51°20.216 2°52.034 8.6545 3.372162 31.600796 -0.164791
2010-11-25 08:15:23 51°20.223 2°52.033 8.6591 3.372899 31.601812 -0.164791
2010-11-25 08:15:29 51°20.232 2°52.032 8.6634 3.373953 31.606114 -0.164791
2010-11-25 08:15:34 51°20.24 2°52.031 8.6673 3.374059 31.602037 -0.164791
2010-11-25 08:15:39 51°20.248 2°52.03 8.6694 3.375007 31.60672 -0.164791
2010-11-25 08:15:44 51°20.256 2°52.029 8.6691 3.37585 31.610308 -0.199615
2010-11-25 08:15:49 51°20.264 2°52.028 8.6688 3.37585 31.610308 -0.199615
2010-11-25 08:15:55 51°20.274 2°52.026 8.6688 3.376588 31.612061 -0.129967
2010-11-25 08:15:59 51°20.28 2°52.025 8.6689 3.377431 31.616386 -0.164791
2010-11-25 08:16:04 51°20.287 2°52.024 8.6714 3.377958 31.61595 -0.164791
2010-11-25 08:16:09 51°20.293 2°52.023 8.6726 3.378696 31.616965 -0.129967
2010-11-25 08:16:14 51°20.298 2°52.022 8.6776 3.378591 31.61218 -0.164791
2010-11-25 08:16:19 51°20.304 2°52.021 8.6805 3.378591 31.61218 -0.164791
2010-11-25 08:16:23 51°20.309 2°52.02 8.6814 3.378907 31.613248 -0.199615
2010-11-25 08:16:29 51°20.317 2°52.017 8.6825 3.378696 31.608847 -0.164791
2010-11-25 08:16:34 51°20.324 2°52.016 8.6844 3.378802 31.609203 -0.164791
2010-11-25 08:16:39 51°20.331 2°52.014 8.684 3.379223 31.611364 -0.164791
2010-11-25 08:16:43 51°20.338 2°52.013 8.6844 3.378485 31.602971 -0.164791
2010-11-25 08:16:49 51°20.347 2°52.012 8.6855 3.378485 31.602971 -0.164791
2010-11-25 08:16:54 51°20.355 2°52.011 8.6881 3.378907 31.606608 -0.129967
2010-11-25 08:16:59 51°20.362 2°52.01 8.6917 3.378274 31.597097 -0.164791
2010-11-25 08:17:04 51°20.37 2°52.008 8.6924 3.379328 31.605819 -0.164791
2010-11-25 08:17:09 51°20.378 2°52.008 8.695 3.379118 31.60142 -0.164791
2010-11-25 08:17:15 51°20.388 2°52.006 8.6967 3.379012 31.600327 -0.164791
2010-11-25 08:17:19 51°20.394 2°52.005 8.7 3.379012 31.600327 -0.164791
2010-11-25 08:17:23 51°20.4 2°52.004 8.7059 3.378696 31.594835 -0.129967
2010-11-25 08:17:30 51°20.411 2°52.002 8.7112 3.378801 31.595929 -0.164791
2010-11-25 08:17:34 51°20.416 2°52.001 8.7146 3.378591 31.592268 -0.164791
2010-11-25 08:17:39 51°20.424 2°52 8.72 3.378485 31.588964 -0.129967
2010-11-25 08:17:44 51°20.432 2°51.998 8.7241 3.37859 31.58711 -0.129967
2010-11-25 08:17:49 51°20.44 2°51.998 8.7285 3.37859 31.58711 -0.129967
2010-11-25 08:17:55 51°20.45 2°51.996 8.7337 3.379117 31.590365 -0.164791
2010-11-25 08:17:59 51°20.457 2°51.995 8.7365 3.379434 31.590696 -0.164791
2010-11-25 08:18:04 51°20.466 2°51.993 8.7398 3.377958 31.571715 -0.129967
2010-11-25 08:18:10 51°20.477 2°51.991 8.7433 3.37975 31.586609 -0.164791
2010-11-25 08:18:14 51°20.485 2°51.99 8.7468 3.379855 31.58402 -0.164791
2010-11-25 08:18:19 51°20.493 2°51.989 8.7481 3.379855 31.58402 -0.164791
2010-11-25 08:18:24 51°20.502 2°51.987 8.7484 3.380593 31.586514 -0.129967
2010-11-25 08:18:30 51°20.512 2°51.986 8.7475 3.381542 31.591927 -0.129967
2010-11-25 08:18:35 51°20.521 2°51.986 8.741 3.381436 31.587155 -0.164791
2010-11-25 08:18:39 51°20.529 2°51.987 8.7368 3.382069 31.590763 -0.129967
2010-11-25 08:18:44 51°20.538 2°51.987 8.7362 3.381963 31.585256 -0.129967
2010-11-25 08:18:49 51°20.546 2°51.989 8.7307 3.381963 31.585256 -0.129967
2010-11-25 08:18:55 51°20.556 2°51.991 8.728 3.382806 31.590312 -0.129967
2010-11-25 08:18:59 51°20.564 2°51.993 8.7245 3.382595 31.585186 -0.164791
2010-11-25 08:19:04 51°20.573 2°51.994 8.7251 3.383544 31.592068 -0.129967
2010-11-25 08:19:09 51°20.582 2°51.996 8.7257 3.383755 31.594252 -0.129967
2010-11-25 08:19:15 51°20.593 2°51.998 8.729 3.383333 31.592092 -0.164791
2010-11-25 08:19:19 51°20.6 2°52 8.7392 3.383333 31.592092 -0.164791
2010-11-25 08:19:24 51°20.61 2°52.002 8.7462 3.382595 31.585186 -0.129967
2010-11-25 08:19:30 51°20.621 2°52.005 8.7545 3.381963 31.582313 -0.164791
2010-11-25 08:19:35 51°20.63 2°52.008 8.7629 3.381436 31.579797 -0.129967
2010-11-25 08:19:39 51°20.637 2°52.011 8.7691 3.381225 31.57982 -0.129967
2010-11-25 08:19:44 51°20.646 2°52.014 8.7744 3.381225 31.582027 -0.164791
2010-11-25 08:19:49 51°20.654 2°52.017 8.7799 3.381225 31.582027 -0.164791
2010-11-25 08:19:55 51°20.665 2°52.019 8.7849 3.380804 31.57913 -0.164791
2010-11-25 08:19:59 51°20.672 2°52.021 8.7887 3.381331 31.580912 -0.129967
2010-11-25 08:20:04 51°20.681 2°52.023 8.7932 3.382279 31.584117 -0.164791
2010-11-25 08:20:09 51°20.689 2°52.026 8.7972 3.382806 31.582221 -0.129967
2010-11-25 08:20:14 51°20.698 2°52.028 8.8031 3.383122 31.581818 -0.129967
2010-11-25 08:20:19 51°20.706 2°52.031 8.8076 3.383122 31.581818 -0.129967
2010-11-25 08:20:24 51°20.714 2°52.033 8.8131 3.385336 31.596648 -0.164791
2010-11-25 08:20:29 51°20.723 2°52.036 8.8182 3.386179 31.599494 -0.129967
2010-11-25 08:20:35 51°20.733 2°52.038 8.8249 3.387233 31.605992 -0.129967
2010-11-25 08:20:39 51°20.74 2°52.04 8.8309 3.388287 31.611019 -0.129967
2010-11-25 08:20:44 51°20.748 2°52.042 8.8355 3.389341 31.616044 -0.129967
2010-11-25 08:20:50 51°20.758 2°52.045 8.8404 3.389341 31.616044 -0.129967
2010-11-25 08:20:55 51°20.767 2°52.047 8.8436 3.389974 31.619646 -0.129967
2010-11-25 08:20:59 51°20.775 2°52.049 8.8489 3.390817 31.622488 -0.164791
2010-11-25 08:21:04 51°20.784 2°52.051 8.8537 3.392187 31.630046 -0.129967
2010-11-25 08:21:09 51°20.793 2°52.053 8.8578 3.392925 31.632531 -0.129967
2010-11-25 08:21:14 51°20.8 2°52.055 8.8606 3.394084 31.639376 -0.129967
2010-11-25 08:21:19 51°20.808 2°52.057 8.8631 3.394084 31.639376 -0.129967
2010-11-25 08:21:24 51°20.817 2°52.059 8.8642 3.395138 31.645864 -0.164791
2010-11-25 08:21:29 51°20.826 2°52.06 8.8641 3.396192 31.652352 -0.164791
2010-11-25 08:21:35 51°20.836 2°52.063 8.8639 3.397352 31.656986 -0.164791
2010-11-25 08:21:39 51°20.843 2°52.065 8.8617 3.397984 31.658378 -0.129967
2010-11-25 08:21:45 51°20.851 2°52.068 8.862 3.398828 31.661947 -0.164791
2010-11-25 08:21:50 51°20.858 2°52.069 8.8615 3.398828 31.661947 -0.164791
2010-11-25 08:21:55 51°20.864 2°52.071 8.8607 3.399987 31.670254 -0.164791
2010-11-25 08:21:59 51°20.869 2°52.073 8.8614 3.400303 31.670582 -0.164791
2010-11-25 08:22:04 51°20.876 2°52.074 8.8624 3.401041 31.67453 -0.129967
2010-11-25 08:22:09 51°20.883 2°52.076 8.8628 3.401357 31.674857 -0.164791
2010-11-25 08:22:14 51°20.89 2°52.077 8.863 3.400936 31.668297 -0.164791
2010-11-25 08:22:19 51°20.897 2°52.079 8.8619 3.400936 31.668297 -0.164791
2010-11-25 08:22:24 51°20.905 2°52.08 8.8636 3.401463 31.674476 -0.164791
2010-11-25 08:22:29 51°20.911 2°52.083 8.8642 3.401568 31.675565 -0.164791
2010-11-25 08:22:35 51°20.92 2°52.083 8.8658 3.401674 31.678124 -0.164791
2010-11-25 08:22:39 51°20.926 2°52.085 8.8678 3.401357 31.673387 -0.164791
2010-11-25 08:22:43 51°20.932 2°52.085 8.8705 3.401463 31.675211 -0.164791
2010-11-25 08:22:49 51°20.941 2°52.088 8.8721 3.401463 31.675211 -0.164791
2010-11-25 08:22:55 51°20.951 2°52.09 8.8731 3.401463 31.674476 -0.129967
2010-11-25 08:22:59 51°20.958 2°52.092 8.8763 3.401357 31.674857 -0.199615
2010-11-25 08:23:03 51°20.964 2°52.093 8.8791 3.402306 31.681718 -0.164791
2010-11-25 08:23:09 51°20.975 2°52.095 8.8795 3.40199 31.678451 -0.164791
2010-11-25 08:23:14 51°20.983 2°52.097 8.8816 3.402095 31.67954 -0.164791
2010-11-25 08:23:19 51°20.991 2°52.099 8.8813 3.402095 31.67954 -0.164791
2010-11-25 08:23:23 51°20.999 2°52.101 8.8829 3.402728 31.683868 -0.199615
2010-11-25 08:23:29 51°21.009 2°52.104 8.8826 3.403149 31.686754 -0.164791
2010-11-25 08:23:34 51°21.017 2°52.106 8.8832 3.403465 31.68708 -0.164791
2010-11-25 08:23:39 51°21.026 2°52.109 8.8839 3.403571 31.687434 -0.164791
2010-11-25 08:23:44 51°21.034 2°52.111 8.8858 3.404625 31.696851 -0.164791
2010-11-25 08:23:49 51°21.042 2°52.114 8.8849 3.404625 31.696851 -0.164791
2010-11-25 08:23:55 51°21.051 2°52.118 8.8852 3.405152 31.700089 -0.199615
2010-11-25 08:23:59 51°21.057 2°52.12 8.8867 3.405679 31.704062 -0.199615
2010-11-25 08:24:04 51°21.063 2°52.122 8.8867 3.406101 31.706946 -0.164791
2010-11-25 08:24:10 51°21.072 2°52.125 8.8856 3.405995 31.704387 -0.164791
2010-11-25 08:24:14 51°21.077 2°52.126 8.8853 3.407366 31.717804 -0.164791
2010-11-25 08:24:19 51°21.084 2°52.127 8.8848 3.407366 31.717804 -0.164791
2010-11-25 08:24:23 51°21.089 2°52.129 8.8857 3.407366 31.717068 -0.199615
2010-11-25 08:24:29 51°21.098 2°52.131 8.8863 3.407366 31.717804 -0.199615
2010-11-25 08:24:34 51°21.105 2°52.132 8.8869 3.407471 31.717422 -0.199615
2010-11-25 08:24:39 51°21.113 2°52.134 8.8871 3.407471 31.715951 -0.199615
2010-11-25 08:24:44 51°21.121 2°52.136 8.885 3.407787 31.719216 -0.164791
2010-11-25 08:24:49 51°21.129 2°52.138 8.8857 3.407787 31.719216 -0.164791
2010-11-25 08:24:55 51°21.139 2°52.141 8.8871 3.408103 31.723953 -0.164791
2010-11-25 08:24:59 51°21.146 2°52.142 8.8879 3.408103 31.722482 -0.199615
2010-11-25 08:25:04 51°21.155 2°52.144 8.8902 3.408525 31.726837 -0.199615
2010-11-25 08:25:10 51°21.165 2°52.146 8.8878 3.408103 31.722482 -0.164791
2010-11-25 08:25:15 51°21.173 2°52.148 8.8917 3.408103 31.721747 -0.199615
2010-11-25 08:25:19 51°21.18 2°52.15 8.8908 3.408103 31.721747 -0.199615
2010-11-25 08:25:24 51°21.189 2°52.152 8.8909 3.407998 31.722129 -0.199615
2010-11-25 08:25:30 51°21.198 2°52.155 8.8929 3.408314 31.723924 -0.199615
2010-11-25 08:25:35 51°21.206 2°52.158 8.8963 3.408209 31.722835 -0.199615
2010-11-25 08:25:39 51°21.213 2°52.159 8.894 3.407787 31.717745 -0.199615
2010-11-25 08:25:44 51°21.222 2°52.162 8.8959 3.408209 31.719158 -0.199615
2010-11-25 08:25:49 51°21.231 2°52.164 8.8959 3.408209 31.719158 -0.199615
2010-11-25 08:25:55 51°21.242 2°52.167 8.8966 3.407893 31.717363 -0.199615
2010-11-25 08:25:59 51°21.249 2°52.17 8.8991 3.407682 31.713716 -0.199615
2010-11-25 08:26:04 51°21.258 2°52.172 8.8989 3.408103 31.715864 -0.164791
2010-11-25 08:26:10 51°21.269 2°52.176 8.9027 3.407893 31.715157 -0.199615
2010-11-25 08:26:15 51°21.277 2°52.179 8.903 3.408103 31.715864 -0.199615
2010-11-25 08:26:19 51°21.283 2°52.181 8.9039 3.408103 31.715864 -0.199615
2010-11-25 08:26:24 51°21.291 2°52.182 8.9034 3.408314 31.717305 -0.199615
2010-11-25 08:26:29 51°21.299 2°52.184 8.9058 3.408209 31.714746 -0.234439
2010-11-25 08:26:34 51°21.307 2°52.185 8.9035 3.408103 31.713658 -0.199615
2010-11-25 08:26:39 51°21.315 2°52.188 8.9035 3.40842 31.715453 -0.199615
2010-11-25 08:26:43 51°21.322 2°52.189 8.9053 3.408525 31.716541 -0.199615
2010-11-25 08:26:49 51°21.333 2°52.191 8.9072 3.408525 31.716541 -0.199615
2010-11-25 08:26:54 51°21.341 2°52.193 8.9084 3.408314 31.712159 -0.199615
2010-11-25 08:26:59 51°21.35 2°52.195 8.9089 3.40863 31.714689 -0.234439
2010-11-25 08:27:04 51°21.358 2°52.197 8.9102 3.408947 31.717218 -0.199615
2010-11-25 08:27:09 51°21.366 2°52.199 8.9125 3.408947 31.716483 -0.234439
2010-11-25 08:27:14 51°21.375 2°52.201 8.9104 3.409684 31.7241 -0.234439
2010-11-25 08:27:19 51°21.383 2°52.203 8.9104 3.409684 31.7241 -0.234439
2010-11-25 08:27:24 51°21.392 2°52.205 8.9113 3.409368 31.719365 -0.199615
2010-11-25 08:27:29 51°21.401 2°52.208 8.9116 3.409263 31.719012 -0.234439
2010-11-25 08:27:34 51°21.41 2°52.21 8.9087 3.409368 31.71863 -0.164791
2010-11-25 08:27:39 51°21.419 2°52.212 8.9106 3.409684 31.719689 -0.234439
2010-11-25 08:27:44 51°21.428 2°52.215 8.9141 3.409157 31.714249 -0.234439
2010-11-25 08:27:49 51°21.436 2°52.217 8.9129 3.409157 31.714249 -0.234439
2010-11-25 08:27:55 51°21.446 2°52.22 8.9123 3.409579 31.717866 -0.199615
2010-11-25 08:27:59 51°21.452 2°52.22 8.9129 3.409368 31.714955 -0.234439
2010-11-25 08:28:04 51°21.46 2°52.222 8.9115 3.409895 31.720395 -0.199615
2010-11-25 08:28:10 51°21.469 2°52.224 8.9115 3.410211 31.723659 -0.234439
2010-11-25 08:28:15 51°21.477 2°52.227 8.9142 3.410106 31.721101 -0.234439
2010-11-25 08:28:19 51°21.484 2°52.228 8.9133 3.410106 31.721101 -0.234439
2010-11-25 08:28:24 51°21.492 2°52.231 8.9134 3.410422 31.722895 -0.199615
2010-11-25 08:28:30 51°21.503 2°52.234 8.9111 3.410317 31.721807 -0.234439
2010-11-25 08:28:34 51°21.509 2°52.236 8.9115 3.410949 31.728334 -0.164791
2010-11-25 08:28:39 51°21.517 2°52.239 8.9109 3.410949 31.727599 -0.234439
2010-11-25 08:28:44 51°21.525 2°52.241 8.9127 3.410738 31.726159 -0.199615
2010-11-25 08:28:50 51°21.535 2°52.244 8.9094 3.410738 31.726159 -0.199615
2010-11-25 08:28:55 51°21.544 2°52.246 8.9082 3.410633 31.724336 -0.234439
2010-11-25 08:28:59 51°21.551 2°52.247 8.9077 3.410633 31.725071 -0.234439
2010-11-25 08:29:03 51°21.558 2°52.25 8.9055 3.410844 31.726511 -0.234439
2010-11-25 08:29:09 51°21.569 2°52.252 8.9055 3.410738 31.725424 -0.234439
2010-11-25 08:29:14 51°21.578 2°52.254 8.904 3.410949 31.728334 -0.234439
2010-11-25 08:29:19 51°21.586 2°52.257 8.9051 3.410949 31.728334 -0.234439
2010-11-25 08:29:24 51°21.595 2°52.26 8.9032 3.410949 31.72907 -0.234439
2010-11-25 08:29:29 51°21.604 2°52.262 8.8979 3.410422 31.7251 -0.234439
2010-11-25 08:29:34 51°21.613 2°52.264 8.8974 3.410422 31.7251 -0.199615
2010-11-25 08:29:39 51°21.622 2°52.266 8.8986 3.410633 31.728746 -0.199615
2010-11-25 08:29:44 51°21.631 2°52.268 8.8979 3.411055 31.732363 -0.199615
2010-11-25 08:29:49 51°21.64 2°52.271 8.8958 3.411055 31.732363 -0.199615
2010-11-25 08:29:54 51°21.649 2°52.273 8.9008 3.410949 31.73201 -0.199615
2010-11-25 08:29:59 51°21.657 2°52.276 8.8988 3.410211 31.727335 -0.234439
2010-11-25 08:30:04 51°21.666 2°52.279 8.8998 3.410528 31.730599 -0.234439
2010-11-25 08:30:09 51°21.675 2°52.282 8.9003 3.410528 31.731335 -0.199615
2010-11-25 08:30:14 51°21.684 2°52.284 8.8981 3.410528 31.734276 -0.199615
2010-11-25 08:30:19 51°21.693 2°52.286 8.8964 3.410528 31.734276 -0.199615
2010-11-25 08:30:24 51°21.701 2°52.288 8.897 3.410422 31.731717 -0.199615
2010-11-25 08:30:29 51°21.71 2°52.29 8.8976 3.410528 31.731335 -0.199615
2010-11-25 08:30:34 51°21.718 2°52.293 8.8944 3.410001 31.7281 -0.234439
2010-11-25 08:30:39 51°21.727 2°52.296 8.8957 3.410422 31.733188 -0.199615
2010-11-25 08:30:44 51°21.735 2°52.301 8.8932 3.409895 31.726276 -0.234439
2010-11-25 08:30:49 51°21.744 2°52.303 8.8929 3.409895 31.726276 -0.234439
2010-11-25 08:30:55 51°21.755 2°52.306 8.8928 3.410317 31.729894 -0.164791
2010-11-25 08:30:59 51°21.762 2°52.308 8.8922 3.41116 31.74007 -0.199615
2010-11-25 08:31:04 51°21.77 2°52.311 8.8904 3.410844 31.738277 -0.199615
2010-11-25 08:31:09 51°21.779 2°52.313 8.8929 3.410528 31.736483 -0.199615
2010-11-25 08:31:15 51°21.789 2°52.317 8.8911 3.410528 31.737954 -0.234439
2010-11-25 08:31:19 51°21.795 2°52.321 8.8932 3.410528 31.737954 -0.234439
2010-11-25 08:31:24 51°21.804 2°52.323 8.8949 3.410528 31.737954 -0.199615
2010-11-25 08:31:29 51°21.812 2°52.325 8.8936 3.410633 31.739778 -0.234439
2010-11-25 08:31:35 51°21.822 2°52.328 8.8922 3.41116 31.745956 -0.199615
2010-11-25 08:31:39 51°21.828 2°52.331 8.8918 3.410633 31.742722 -0.199615
2010-11-25 08:31:44 51°21.837 2°52.334 8.8893 3.410528 31.740897 -0.234439
2010-11-25 08:31:50 51°21.848 2°52.337 8.89 3.410528 31.740897 -0.234439
2010-11-25 08:31:54 51°21.854 2°52.339 8.8915 3.410844 31.743427 -0.199615
2010-11-25 08:31:59 51°21.863 2°52.341 8.89 3.410212 31.738368 -0.234439
2010-11-25 08:32:04 51°21.872 2°52.344 8.8877 3.410422 31.738337 -0.199615
2010-11-25 08:32:09 51°21.88 2°52.346 8.8865 3.410106 31.735808 -0.199615
2010-11-25 08:32:14 51°21.889 2°52.349 8.8868 3.410633 31.741986 -0.199615
2010-11-25 08:32:19 51°21.897 2°52.352 8.8885 3.410633 31.741986 -0.199615
2010-11-25 08:32:24 51°21.905 2°52.355 8.8873 3.410528 31.740897 -0.234439
2010-11-25 08:32:29 51°21.913 2°52.359 8.8823 3.410633 31.742722 -0.234439
2010-11-25 08:32:35 51°21.922 2°52.362 8.8828 3.410528 31.742369 -0.199615
2010-11-25 08:32:39 51°21.928 2°52.365 8.8829 3.41095 31.746723 -0.234439
2010-11-25 08:32:44 51°21.935 2°52.367 8.883 3.410633 31.746401 -0.199615
2010-11-25 08:32:50 51°21.945 2°52.37 8.8812 3.410633 31.746401 -0.199615
2010-11-25 08:32:55 51°21.953 2°52.372 8.8827 3.410739 31.746754 -0.234439
2010-11-25 08:32:59 51°21.959 2°52.374 8.8818 3.410423 31.744224 -0.199615
2010-11-25 08:33:04 51°21.968 2°52.377 8.8818 3.410106 31.74243 -0.199615
2010-11-25 08:33:09 51°21.977 2°52.38 8.8825 3.410633 31.747874 -0.199615
2010-11-25 08:33:15 51°21.987 2°52.384 8.8828 3.411055 31.753701 -0.234439
2010-11-25 08:33:19 51°21.994 2°52.386 8.884 3.411055 31.753701 -0.234439
2010-11-25 08:33:24 51°22.004 2°52.389 8.8858 3.411266 31.756615 -0.234439
2010-11-25 08:33:29 51°22.013 2°52.392 8.8831 3.411582 31.761354 -0.234439
2010-11-25 08:33:34 51°22.023 2°52.396 8.8852 3.411898 31.764621 -0.234439
2010-11-25 08:33:39 51°22.032 2°52.399 8.8839 3.41232 31.768977 -0.164791
2010-11-25 08:33:44 51°22.041 2°52.403 8.8852 3.41232 31.768977 -0.199615
2010-11-25 08:33:49 51°22.051 2°52.406 8.8859 3.41232 31.768977 -0.199615
2010-11-25 08:33:54 51°22.061 2°52.41 8.8846 3.412425 31.771539 -0.199615
2010-11-25 08:33:59 51°22.07 2°52.413 8.8887 3.41232 31.768977 -0.199615
2010-11-25 08:34:04 51°22.08 2°52.416 8.8907 3.412847 31.771474 -0.199615
2010-11-25 08:34:09 51°22.089 2°52.42 8.8918 3.413058 31.775862 -0.164791
2010-11-25 08:34:14 51°22.098 2°52.423 8.8934 3.413374 31.777655 -0.234439
2010-11-25 08:34:19 51°22.107 2°52.427 8.8904 3.413374 31.777655 -0.234439
2010-11-25 08:34:23 51°22.115 2°52.429 8.8869 3.41369 31.780922 -0.199615
2010-11-25 08:34:29 51°22.126 2°52.433 8.8831 3.414534 31.79037 -0.199615
2010-11-25 08:34:34 51°22.136 2°52.437 8.8838 3.415166 31.796904 -0.199615
2010-11-25 08:34:39 51°22.144 2°52.44 8.8811 3.416537 31.808849 -0.199615